Skip Navigation
Skip Navigation

Today's Weather Data

Time Wind Dir Wind Spd
mph
Wind Gust
mph
Hum In
%
Humidity
%
Temp In
F
Temp
F
Raw Barom
in
Tot Rain
in
UV Solar
W/sqm
DailyRain
in
HourRain
in
24HrRain
in
RainRate
in/hr
11/25/2014 12:00:59a 345 11 23 15 14 74.7 64.2 30.39 1.81 0.0 0 0.00 0.00 0.00 0.000
11/25/2014 12:02:02a 18 10 23 15 14 74.7 64.2 30.40 1.81 0.0 0 0.00 0.00 0.00 0.000
11/25/2014 12:03:02a 24 7 23 15 14 74.7 64.3 30.40 1.81 0.0 0 0.00 0.00 0.00 0.000
11/25/2014 12:04:02a 2 17 20 15 14 74.7 64.3 30.39 1.81 0.0 0 0.00 0.00 0.00 0.000
11/25/2014 12:05:02a 353 5 20 15 14 74.5 64.3 30.39 1.81 0.0 0 0.00 0.00 0.00 0.000
11/25/2014 12:06:02a 338 2 20 15 15 74.5 64.4 30.39 1.81 0.0 0 0.00 0.00 0.00 0.000
11/25/2014 12:07:02a 42 6 20 15 14 74.5 64.3 30.39 1.81 0.0 0 0.00 0.00 0.00 0.000
11/25/2014 12:08:03a 340 9 20 15 14 74.5 64.3 30.39 1.81 0.0 0 0.00 0.00 0.00 0.000
11/25/2014 12:09:06a 10 3 20 15 13 74.5 64.4 30.39 1.81 0.0 0 0.00 0.00 0.00 0.000
11/25/2014 12:10:06a 20 16 20 15 13 74.5 64.4 30.39 1.81 0.0 0 0.00 0.00 0.00 0.000
11/25/2014 12:12:06a 7 12 20 15 13 74.5 64.5 30.39 1.81 0.0 0 0.00 0.00 0.00 0.000
11/25/2014 12:13:06a 16 8 22 15 13 74.5 64.5 30.39 1.81 0.0 0 0.00 0.00 0.00 0.000
11/25/2014 12:14:06a 65 16 22 15 14 74.5 64.6 30.39 1.81 0.0 0 0.00 0.00 0.00 0.000
11/25/2014 12:15:09a 43 5 22 15 13 74.5 64.6 30.39 1.81 0.0 0 0.00 0.00 0.00 0.000
11/25/2014 12:16:09a 89 9 22 15 13 74.5 64.6 30.39 1.81 0.0 0 0.00 0.00 0.00 0.000
11/25/2014 12:17:12a 36 14 22 15 13 74.5 64.7 30.38 1.81 0.0 0 0.00 0.00 0.00 0.000
11/25/2014 12:18:12a 33 9 22 15 13 74.5 64.7 30.38 1.81 0.0 0 0.00 0.00 0.00 0.000
11/25/2014 12:19:13a 45 17 17 15 13 74.5 64.8 30.38 1.81 0.0 0 0.00 0.00 0.00 0.000
11/25/2014 12:20:13a 12 25 25 15 13 74.5 64.8 30.38 1.81 0.0 0 0.00 0.00 0.00 0.000
11/25/2014 12:21:13a 53 15 25 15 13 74.5 64.8 30.38 1.81 0.0 0 0.00 0.00 0.00 0.000
11/25/2014 12:22:13a 2 13 25 15 13 74.5 64.9 30.38 1.81 0.0 0 0.00 0.00 0.00 0.000
11/25/2014 12:23:13a 34 13 25 15 13 74.5 64.9 30.38 1.81 0.0 0 0.00 0.00 0.00 0.000
11/25/2014 12:24:13a 24 9 25 15 13 74.4 65.0 30.38 1.81 0.0 0 0.00 0.00 0.00 0.000
11/25/2014 12:25:13a 59 10 25 15 13 74.4 65.0 30.38 1.81 0.0 0 0.00 0.00 0.00 0.000
11/25/2014 12:26:19a 75 15 25 15 13 74.4 65.0 30.38 1.81 0.0 0 0.00 0.00 0.00 0.000
11/25/2014 12:27:19a 28 10 25 15 13 74.4 65.0 30.38 1.81 0.0 0 0.00 0.00 0.00 0.000
11/25/2014 12:28:19a 40 19 25 15 13 74.4 65.0 30.38 1.81 0.0 0 0.00 0.00 0.00 0.000
11/25/2014 12:29:19a 46 10 25 15 13 74.4 64.9 30.38 1.81 0.0 0 0.00 0.00 0.00 0.000
11/25/2014 12:30:19a 35 16 25 15 13 74.4 65.0 30.38 1.81 0.0 0 0.00 0.00 0.00 0.000
11/25/2014 12:31:20a 56 13 25 15 13 74.4 65.0 30.38 1.81 0.0 0 0.00 0.00 0.00 0.000
11/25/2014 12:32:20a 53 13 25 15 13 74.4 65.0 30.38 1.81 0.0 0 0.00 0.00 0.00 0.000
11/25/2014 12:33:20a 55 10 25 15 13 74.4 65.0 30.38 1.81 0.0 0 0.00 0.00 0.00 0.000
11/25/2014 12:34:20a 76 16 19 15 13 74.2 65.0 30.38 1.81 0.0 0 0.00 0.00 0.00 0.000
11/25/2014 12:35:20a 62 10 19 15 13 74.2 65.1 30.38 1.81 0.0 0 0.00 0.00 0.00 0.000
11/25/2014 12:36:20a 39 14 19 15 13 74.2 65.0 30.38 1.81 0.0 0 0.00 0.00 0.00 0.000
11/25/2014 12:37:20a 42 16 20 15 13 74.2 65.0 30.38 1.81 0.0 0 0.00 0.00 0.00 0.000
11/25/2014 12:38:26a 49 14 20 15 13 74.2 65.0 30.38 1.81 0.0 0 0.00 0.00 0.00 0.000
11/25/2014 12:39:26a 50 10 20 15 13 74.2 65.0 30.38 1.81 0.0 0 0.00 0.00 0.00 0.000
11/25/2014 12:40:26a 42 13 20 15 13 74.2 65.0 30.38 1.81 0.0 0 0.00 0.00 0.00 0.000
11/25/2014 12:41:26a 44 9 20 15 13 74.2 65.0 30.38 1.81 0.0 0 0.00 0.00 0.00 0.000
11/25/2014 12:42:26a 56 7 20 15 13 74.2 65.0 30.38 1.81 0.0 0 0.00 0.00 0.00 0.000
11/25/2014 12:43:26a 40 14 20 15 13 74.2 65.0 30.38 1.81 0.0 0 0.00 0.00 0.00 0.000
11/25/2014 12:44:29a 46 13 20 15 12 74.2 65.1 30.38 1.81 0.0 0 0.00 0.00 0.00 0.000
11/25/2014 12:45:29a 42 12 20 15 13 74.0 65.1 30.38 1.81 0.0 0 0.00 0.00 0.00 0.000
11/25/2014 12:46:30a 34 13 20 15 12 74.0 65.2 30.38 1.81 0.0 0 0.00 0.00 0.00 0.000
11/25/2014 12:47:30a 61 9 20 15 13 74.0 65.2 30.38 1.81 0.0 0 0.00 0.00 0.00 0.000
11/25/2014 12:48:33a 30 11 11 15 13 74.0 65.3 30.38 1.81 0.0 0 0.00 0.00 0.00 0.000
11/25/2014 12:49:36a 28 10 11 15 13 74.0 65.2 30.38 1.81 0.0 0 0.00 0.00 0.00 0.000
11/25/2014 12:50:36a 55 16 17 15 12 74.0 65.2 30.38 1.81 0.0 0 0.00 0.00 0.00 0.000
11/25/2014 12:51:36a 17 7 17 15 12 74.0 65.2 30.38 1.81 0.0 0 0.00 0.00 0.00 0.000
11/25/2014 12:52:40a 79 12 17 15 12 74.0 65.3 30.38 1.81 0.0 0 0.00 0.00 0.00 0.000
11/25/2014 12:53:40a 40 5 17 15 13 74.0 65.3 30.38 1.81 0.0 0 0.00 0.00 0.00 0.000
11/25/2014 12:54:40a 141 9 17 15 13 74.0 65.3 30.38 1.81 0.0 0 0.00 0.00 0.00 0.000
11/25/2014 12:55:40a 171 7 17 15 13 73.9 65.2 30.38 1.81 0.0 0 0.00 0.00 0.00 0.000
11/25/2014 12:56:43a 161 4 17 15 13 73.9 65.2 30.38 1.81 0.0 0 0.00 0.00 0.00 0.000
11/25/2014 12:57:43a 70 3 17 15 13 73.9 65.2 30.38 1.81 0.0 0 0.00 0.00 0.00 0.000
11/25/2014 12:58:43a 82 6 17 15 13 73.9 65.0 30.39 1.81 0.0 0 0.00 0.00 0.00 0.000
11/25/2014 12:59:43a 134 3 17 15 14 73.9 64.6 30.38 1.81 0.0 0 0.00 0.00 0.00 0.000
11/25/2014 1:00:43a 95 0 17 15 15 73.9 64.1 30.39 1.81 0.0 0 0.00 0.00 0.00 0.000
11/25/2014 1:01:43a 158 1 17 15 16 73.9 63.5 30.39 1.81 0.0 0 0.00 0.00 0.00 0.000
11/25/2014 1:02:43a 218 3 17 15 15 73.9 62.8 30.39 1.81 0.0 0 0.00 0.00 0.00 0.000
11/25/2014 1:03:44a 209 3 4 15 16 73.9 62.2 30.39 1.81 0.0 0 0.00 0.00 0.00 0.000
11/25/2014 1:04:44a 218 5 5 15 16 73.9 61.7 30.39 1.81 0.0 0 0.00 0.00 0.00 0.000
11/25/2014 1:05:44a 211 3 5 15 17 73.9 61.4 30.39 1.81 0.0 0 0.00 0.00 0.00 0.000
11/25/2014 1:06:44a 171 5 7 15 17 73.7 61.0 30.40 1.81 0.0 0 0.00 0.00 0.00 0.000
11/25/2014 1:07:44a 176 2 7 15 16 73.7 60.7 30.40 1.81 0.0 0 0.00 0.00 0.00 0.000
11/25/2014 1:08:44a 180 4 7 15 17 73.7 60.7 30.40 1.81 0.0 0 0.00 0.00 0.00 0.000
11/25/2014 1:09:44a 180 3 7 15 17 73.7 60.5 30.40 1.81 0.0 0 0.00 0.00 0.00 0.000
11/25/2014 1:10:44a 180 2 7 15 17 73.7 60.3 30.40 1.81 0.0 0 0.00 0.00 0.00 0.000
11/25/2014 1:11:44a 118 3 7 15 16 73.7 60.2 30.40 1.81 0.0 0 0.00 0.00 0.00 0.000
11/25/2014 1:12:44a 107 2 7 15 17 73.7 60.2 30.40 1.81 0.0 0 0.00 0.00 0.00 0.000
11/25/2014 1:13:45a 145 1 7 15 16 73.7 60.1 30.40 1.81 0.0 0 0.00 0.00 0.00 0.000
11/25/2014 1:14:45a 146 0 7 15 17 73.7 60.2 30.40 1.81 0.0 0 0.00 0.00 0.00 0.000
11/25/2014 1:15:45a 155 2 7 15 17 73.7 60.2 30.40 1.81 0.0 0 0.00 0.00 0.00 0.000
11/25/2014 1:16:45a 155 0 7 15 16 73.7 60.2 30.40 1.81 0.0 0 0.00 0.00 0.00 0.000
11/25/2014 1:17:45a 155 0 7 15 16 73.7 60.2 30.40 1.81 0.0 0 0.00 0.00 0.00 0.000
11/25/2014 1:18:45a 155 0 1 15 16 73.5 60.1 30.40 1.81 0.0 0 0.00 0.00 0.00 0.000
11/25/2014 1:19:45a 155 2 3 15 17 73.5 60.1 30.40 1.81 0.0 0 0.00 0.00 0.00 0.000
11/25/2014 1:20:45a 159 3 4 15 17 73.5 60.0 30.40 1.81 0.0 0 0.00 0.00 0.00 0.000
11/25/2014 1:21:45a 159 2 4 15 17 73.5 60.0 30.40 1.81 0.0 0 0.00 0.00 0.00 0.000
11/25/2014 1:22:48a 201 5 5 15 17 73.5 59.9 30.40 1.81 0.0 0 0.00 0.00 0.00 0.000
11/25/2014 1:23:48a 205 4 5 15 18 73.5 59.8 30.40 1.81 0.0 0 0.00 0.00 0.00 0.000
11/25/2014 1:24:49a 203 1 5 15 19 73.5 59.8 30.40 1.81 0.0 0 0.00 0.00 0.00 0.000
11/25/2014 1:25:52a 161 4 5 15 19 73.5 59.6 30.40 1.81 0.0 0 0.00 0.00 0.00 0.000
11/25/2014 1:26:52a 184 5 7 15 18 73.5 59.4 30.40 1.81 0.0 0 0.00 0.00 0.00 0.000
11/25/2014 1:27:52a 184 4 7 15 17 73.5 59.3 30.40 1.81 0.0 0 0.00 0.00 0.00 0.000
11/25/2014 1:28:52a 180 1 7 15 18 73.5 59.3 30.40 1.81 0.0 0 0.00 0.00 0.00 0.000
11/25/2014 1:29:52a 180 1 7 15 19 73.3 59.3 30.40 1.81 0.0 0 0.00 0.00 0.00 0.000
11/25/2014 1:30:52a 209 6 7 15 18 73.3 59.3 30.40 1.81 0.0 0 0.00 0.00 0.00 0.000
11/25/2014 1:31:52a 207 0 7 15 17 73.3 59.3 30.40 1.81 0.0 0 0.00 0.00 0.00 0.000
11/25/2014 1:32:52a 208 0 7 15 18 73.3 59.3 30.40 1.81 0.0 0 0.00 0.00 0.00 0.000
11/25/2014 1:33:52a 207 0 0 15 20 73.3 59.3 30.40 1.81 0.0 0 0.00 0.00 0.00 0.000
11/25/2014 1:34:55a 207 0 0 15 20 73.3 59.3 30.40 1.81 0.0 0 0.00 0.00 0.00 0.000
11/25/2014 1:35:55a 208 0 1 15 20 73.3 59.1 30.40 1.81 0.0 0 0.00 0.00 0.00 0.000
11/25/2014 1:36:56a 208 2 3 15 20 73.3 58.8 30.41 1.81 0.0 0 0.00 0.00 0.00 0.000
11/25/2014 1:37:56a 198 3 5 15 19 73.3 58.7 30.40 1.81 0.0 0 0.00 0.00 0.00 0.000
11/25/2014 1:38:56a 198 2 5 15 18 73.2 58.7 30.41 1.81 0.0 0 0.00 0.00 0.00 0.000
11/25/2014 1:39:56a 198 1 5 15 18 73.2 58.6 30.41 1.81 0.0 0 0.00 0.00 0.00 0.000
11/25/2014 1:40:56a 198 0 5 15 18 73.2 58.4 30.41 1.81 0.0 0 0.00 0.00 0.00 0.000
11/25/2014 1:41:56a 198 0 5 15 18 73.2 58.3 30.41 1.81 0.0 0 0.00 0.00 0.00 0.000
11/25/2014 1:42:56a 199 3 5 15 18 73.2 58.1 30.41 1.81 0.0 0 0.00 0.00 0.00 0.000
11/25/2014 1:43:56a 273 3 5 15 18 73.2 57.9 30.41 1.81 0.0 0 0.00 0.00 0.00 0.000
11/25/2014 1:44:56a 354 3 5 15 18 73.2 57.6 30.41 1.81 0.0 0 0.00 0.00 0.00 0.000
11/25/2014 1:45:56a 355 2 5 15 18 73.2 57.4 30.41 1.81 0.0 0 0.00 0.00 0.00 0.000
11/25/2014 1:46:56a 355 3 5 15 18 73.2 57.2 30.41 1.81 0.0 0 0.00 0.00 0.00 0.000
11/25/2014 1:47:56a 353 1 5 15 18 73.2 56.8 30.41 1.81 0.0 0 0.00 0.00 0.00 0.000
11/25/2014 1:48:57a 355 2 3 15 19 73.0 56.5 30.41 1.81 0.0 0 0.00 0.00 0.00 0.000
11/25/2014 1:49:57a 354 2 3 15 19 73.0 56.3 30.41 1.81 0.0 0 0.00 0.00 0.00 0.000
11/25/2014 1:50:57a 353 0 3 15 19 73.0 56.1 30.41 1.81 0.0 0 0.00 0.00 0.00 0.000
11/25/2014 1:51:57a 355 1 3 15 20 73.0 55.9 30.41 1.81 0.0 0 0.00 0.00 0.00 0.000
11/25/2014 1:52:57a 355 2 3 15 20 73.0 55.8 30.41 1.81 0.0 0 0.00 0.00 0.00 0.000
11/25/2014 1:53:57a 354 2 3 15 20 73.0 55.6 30.41 1.81 0.0 0 0.00 0.00 0.00 0.000
11/25/2014 1:54:57a 353 1 3 15 20 73.0 55.4 30.41 1.81 0.0 0 0.00 0.00 0.00 0.000
11/25/2014 1:55:57a 353 0 3 15 21 73.0 55.2 30.42 1.81 0.0 0 0.00 0.00 0.00 0.000
11/25/2014 1:56:57a 353 2 3 15 20 72.8 55.1 30.42 1.81 0.0 0 0.00 0.00 0.00 0.000
11/25/2014 1:57:57a 355 1 3 15 20 72.8 55.0 30.41 1.81 0.0 0 0.00 0.00 0.00 0.000
11/25/2014 1:58:57a 354 2 3 15 20 72.8 55.0 30.41 1.81 0.0 0 0.00 0.00 0.00 0.000
11/25/2014 2:00:00a 354 0 3 15 20 72.8 55.0 30.41 1.81 0.0 0 0.00 0.00 0.00 0.000
11/25/2014 2:01:00a 354 0 3 15 20 72.8 55.0 30.41 1.81 0.0 0 0.00 0.00 0.00 0.000
11/25/2014 2:02:00a 354 1 3 15 21 72.8 54.9 30.41 1.81 0.0 0 0.00 0.00 0.00 0.000
11/25/2014 2:03:01a 355 4 5 15 21 72.8 54.9 30.41 1.81 0.0 0 0.00 0.00 0.00 0.000
11/25/2014 2:04:04a 354 2 3 15 21 72.7 54.7 30.41 1.81 0.0 0 0.00 0.00 0.00 0.000
11/25/2014 2:05:04a 355 3 3 15 20 72.7 54.7 30.41 1.81 0.0 0 0.00 0.00 0.00 0.000
11/25/2014 2:06:04a 353 3 3 15 20 72.7 54.8 30.41 1.81 0.0 0 0.00 0.00 0.00 0.000
11/25/2014 2:07:04a 354 2 3 15 21 72.7 54.7 30.41 1.81 0.0 0 0.00 0.00 0.00 0.000
11/25/2014 2:08:04a 355 2 3 15 20 72.7 54.6 30.41 1.81 0.0 0 0.00 0.00 0.00 0.000
11/25/2014 2:09:04a 355 2 4 15 20 72.7 54.6 30.41 1.81 0.0 0 0.00 0.00 0.00 0.000
11/25/2014 2:10:04a 355 3 4 15 20 72.7 54.7 30.41 1.81 0.0 0 0.00 0.00 0.00 0.000
11/25/2014 2:11:04a 355 1 4 15 20 72.7 54.7 30.41 1.81 0.0 0 0.00 0.00 0.00 0.000
11/25/2014 2:12:04a 355 0 4 15 20 72.5 54.7 30.41 1.81 0.0 0 0.00 0.00 0.00 0.000
11/25/2014 2:13:10a 355 0 4 15 20 72.5 54.7 30.41 1.81 0.0 0 0.00 0.00 0.00 0.000
11/25/2014 2:14:11a 355 0 4 15 21 72.5 54.8 30.41 1.81 0.0 0 0.00 0.00 0.00 0.000
11/25/2014 2:15:11a 355 0 4 15 22 72.5 54.9 30.41 1.81 0.0 0 0.00 0.00 0.00 0.000
11/25/2014 2:16:11a 355 0 4 15 23 72.5 54.9 30.41 1.81 0.0 0 0.00 0.00 0.00 0.000
11/25/2014 2:17:11a 355 1 4 15 24 72.5 55.0 30.41 1.81 0.0 0 0.00 0.00 0.00 0.000
11/25/2014 2:18:14a 355 0 4 15 24 72.5 55.1 30.41 1.81 0.0 0 0.00 0.00 0.00 0.000
11/25/2014 2:19:14a 355 0 1 15 24 72.3 55.2 30.41 1.81 0.0 0 0.00 0.00 0.00 0.000
11/25/2014 2:20:14a 355 0 1 15 25 72.3 55.3 30.41 1.81 0.0 0 0.00 0.00 0.00 0.000
11/25/2014 2:21:14a 355 1 1 15 26 72.3 55.2 30.41 1.81 0.0 0 0.00 0.00 0.00 0.000
11/25/2014 2:22:14a 355 0 1 15 24 72.3 55.0 30.41 1.81 0.0 0 0.00 0.00 0.00 0.000
11/25/2014 2:23:14a 355 0 1 15 23 72.3 54.9 30.41 1.81 0.0 0 0.00 0.00 0.00 0.000
11/25/2014 2:24:17a 355 0 1 15 22 72.3 54.8 30.41 1.81 0.0 0 0.00 0.00 0.00 0.000
11/25/2014 2:25:18a 355 2 3 15 21 72.1 54.7 30.41 1.81 0.0 0 0.00 0.00 0.00 0.000
11/25/2014 2:26:18a 355 0 3 15 21 72.1 54.6 30.41 1.81 0.0 0 0.00 0.00 0.00 0.000
11/25/2014 2:27:18a 355 0 3 15 22 72.1 54.4 30.41 1.81 0.0 0 0.00 0.00 0.00 0.000
11/25/2014 2:28:18a 355 0 3 15 22 72.1 54.1 30.42 1.81 0.0 0 0.00 0.00 0.00 0.000
11/25/2014 2:29:18a 355 0 3 15 22 72.1 54.0 30.42 1.81 0.0 0 0.00 0.00 0.00 0.000
11/25/2014 2:30:18a 355 0 3 15 22 72.1 53.9 30.41 1.81 0.0 0 0.00 0.00 0.00 0.000
11/25/2014 2:31:18a 355 0 3 15 22 72.1 53.9 30.41 1.81 0.0 0 0.00 0.00 0.00 0.000
11/25/2014 2:32:18a 355 0 3 15 22 72.0 53.8 30.41 1.81 0.0 0 0.00 0.00 0.00 0.000
11/25/2014 2:33:18a 355 0 3 15 22 72.0 53.7 30.42 1.81 0.0 0 0.00 0.00 0.00 0.000
11/25/2014 2:34:18a 355 0 1 15 21 72.0 53.6 30.41 1.81 0.0 0 0.00 0.00 0.00 0.000
11/25/2014 2:35:18a 355 0 1 15 21 72.0 53.6 30.41 1.81 0.0 0 0.00 0.00 0.00 0.000
11/25/2014 2:36:18a 355 0 1 15 22 72.0 53.5 30.41 1.81 0.0 0 0.00 0.00 0.00 0.000
11/25/2014 2:37:21a 355 0 1 15 24 72.0 53.4 30.42 1.81 0.0 0 0.00 0.00 0.00 0.000
11/25/2014 2:38:22a 355 0 1 15 25 71.8 53.2 30.42 1.81 0.0 0 0.00 0.00 0.00 0.000
11/25/2014 2:39:22a 355 0 2 15 26 71.8 53.0 30.42 1.81 0.0 0 0.00 0.00 0.00 0.000
11/25/2014 2:40:22a 354 0 2 15 25 71.8 52.9 30.42 1.81 0.0 0 0.00 0.00 0.00 0.000
11/25/2014 2:41:28a 355 0 2 15 24 71.8 52.9 30.42 1.81 0.0 0 0.00 0.00 0.00 0.000
11/25/2014 2:42:28a 355 0 2 15 24 71.8 53.0 30.42 1.81 0.0 0 0.00 0.00 0.00 0.000
11/25/2014 2:43:28a 355 1 2 15 24 71.8 53.1 30.42 1.81 0.0 0 0.00 0.00 0.00 0.000
11/25/2014 2:44:28a 355 0 2 15 23 71.6 53.0 30.42 1.81 0.0 0 0.00 0.00 0.00 0.000
11/25/2014 2:45:28a 355 0 2 15 22 71.6 52.8 30.42 1.81 0.0 0 0.00 0.00 0.00 0.000
11/25/2014 2:46:28a 355 1 2 15 22 71.6 52.5 30.42 1.81 0.0 0 0.00 0.00 0.00 0.000
11/25/2014 2:47:28a 355 0 2 15 22 71.6 52.2 30.42 1.81 0.0 0 0.00 0.00 0.00 0.000
11/25/2014 2:48:28a 355 0 1 15 23 71.6 52.1 30.42 1.81 0.0 0 0.00 0.00 0.00 0.000
11/25/2014 2:49:29a 355 1 1 15 24 71.6 52.1 30.42 1.81 0.0 0 0.00 0.00 0.00 0.000
11/25/2014 2:50:29a 355 0 2 15 25 71.5 52.2 30.42 1.81 0.0 0 0.00 0.00 0.00 0.000
11/25/2014 2:51:29a 353 1 2 15 25 71.5 52.4 30.42 1.81 0.0 0 0.00 0.00 0.00 0.000
11/25/2014 2:52:30a 355 2 4 16 23 71.5 52.5 30.42 1.81 0.0 0 0.00 0.00 0.00 0.000
11/25/2014 2:53:30a 355 2 4 16 22 71.5 52.5 30.42 1.81 0.0 0 0.00 0.00 0.00 0.000
11/25/2014 2:54:30a 355 2 4 16 22 71.5 52.6 30.42 1.81 0.0 0 0.00 0.00 0.00 0.000
11/25/2014 2:55:30a 355 1 4 16 21 71.5 52.7 30.42 1.81 0.0 0 0.00 0.00 0.00 0.000
11/25/2014 2:56:30a 355 1 4 16 21 71.3 52.7 30.42 1.81 0.0 0 0.00 0.00 0.00 0.000
11/25/2014 2:57:33a 354 1 4 16 23 71.3 52.8 30.42 1.81 0.0 0 0.00 0.00 0.00 0.000
11/25/2014 2:58:33a 355 0 4 16 24 71.3 52.9 30.42 1.81 0.0 0 0.00 0.00 0.00 0.000
11/25/2014 2:59:36a 355 0 4 16 26 71.3 52.9 30.41 1.81 0.0 0 0.00 0.00 0.00 0.000
11/25/2014 3:00:36a 355 0 4 16 27 71.3 52.8 30.42 1.81 0.0 0 0.00 0.00 0.00 0.000
11/25/2014 3:01:36a 355 0 4 16 26 71.3 52.5 30.41 1.81 0.0 0 0.00 0.00 0.00 0.000
11/25/2014 3:02:36a 355 0 4 16 26 71.1 52.3 30.42 1.81 0.0 0 0.00 0.00 0.00 0.000
11/25/2014 3:03:37a 353 2 3 16 26 71.1 52.2 30.42 1.81 0.0 0 0.00 0.00 0.00 0.000
11/25/2014 3:04:37a 355 3 4 16 24 71.1 52.1 30.42 1.81 0.0 0 0.00 0.00 0.00 0.000
11/25/2014 3:05:37a 354 2 4 16 23 71.1 51.9 30.42 1.81 0.0 0 0.00 0.00 0.00 0.000
11/25/2014 3:06:37a 355 2 4 16 23 71.1 51.7 30.42 1.81 0.0 0 0.00 0.00 0.00 0.000
11/25/2014 3:07:37a 355 0 4 16 23 71.1 51.4 30.42 1.81 0.0 0 0.00 0.00 0.00 0.000
11/25/2014 3:08:37a 355 2 4 16 23 71.0 51.3 30.42 1.81 0.0 0 0.00 0.00 0.00 0.000
11/25/2014 3:09:37a 355 0 4 16 24 71.0 51.5 30.42 1.81 0.0 0 0.00 0.00 0.00 0.000
11/25/2014 3:10:40a 325 4 6 16 25 71.0 51.7 30.42 1.81 0.0 0 0.00 0.00 0.00 0.000
11/25/2014 3:11:40a 325 0 6 16 25 71.0 52.0 30.41 1.81 0.0 0 0.00 0.00 0.00 0.000
11/25/2014 3:12:40a 309 3 6 16 24 71.0 52.6 30.42 1.81 0.0 0 0.00 0.00 0.00 0.000
11/25/2014 3:13:40a 1 4 6 16 23 71.0 53.3 30.42 1.81 0.0 0 0.00 0.00 0.00 0.000
11/25/2014 3:14:40a 341 4 6 16 21 70.8 53.8 30.41 1.81 0.0 0 0.00 0.00 0.00 0.000
11/25/2014 3:15:40a 341 3 6 16 21 70.8 54.3 30.41 1.81 0.0 0 0.00 0.00 0.00 0.000
11/25/2014 3:16:40a 340 3 6 16 20 70.8 54.7 30.41 1.81 0.0 0 0.00 0.00 0.00 0.000
11/25/2014 3:17:40a 340 4 6 16 20 70.8 55.1 30.41 1.81 0.0 0 0.00 0.00 0.00 0.000
11/25/2014 3:18:41a 340 3 4 16 20 70.8 55.4 30.41 1.81 0.0 0 0.00 0.00 0.00 0.000
11/25/2014 3:19:44a 340 4 4 16 19 70.8 55.7 30.41 1.81 0.0 0 0.00 0.00 0.00 0.000
11/25/2014 3:20:44a 350 3 5 16 19 70.6 56.0 30.41 1.81 0.0 0 0.00 0.00 0.00 0.000
11/25/2014 3:21:44a 328 5 6 16 19 70.6 56.3 30.41 1.81 0.0 0 0.00 0.00 0.00 0.000
11/25/2014 3:22:44a 323 3 6 16 19 70.6 56.5 30.41 1.81 0.0 0 0.00 0.00 0.00 0.000
11/25/2014 3:23:47a 12 3 6 16 19 70.6 56.9 30.41 1.81 0.0 0 0.00 0.00 0.00 0.000
11/25/2014 3:24:47a 346 6 6 16 18 70.6 57.3 30.41 1.81 0.0 0 0.00 0.00 0.00 0.000
11/25/2014 3:25:47a 319 5 6 16 18 70.6 57.6 30.40 1.81 0.0 0 0.00 0.00 0.00 0.000
11/25/2014 3:26:47a 353 4 6 16 18 70.5 58.0 30.40 1.81 0.0 0 0.00 0.00 0.00 0.000
11/25/2014 3:27:50a 354 2 6 16 17 70.5 58.4 30.40 1.81 0.0 0 0.00 0.00 0.00 0.000
11/25/2014 3:28:50a 318 5 6 16 17 70.5 58.7 30.40 1.81 0.0 0 0.00 0.00 0.00 0.000
11/25/2014 3:29:53a 343 3 6 16 17 70.5 59.2 30.40 1.81 0.0 0 0.00 0.00 0.00 0.000
11/25/2014 3:30:54a 349 2 6 16 17 70.5 59.3 30.40 1.81 0.0 0 0.00 0.00 0.00 0.000
11/25/2014 3:31:57a 345 4 6 16 16 70.5 59.6 30.40 1.81 0.0 0 0.00 0.00 0.00 0.000
11/25/2014 3:32:57a 328 8 8 16 16 70.3 59.8 30.40 1.81 0.0 0 0.00 0.00 0.00 0.000
11/25/2014 3:34:00a 333 4 6 16 16 70.3 60.0 30.40 1.81 0.0 0 0.00 0.00 0.00 0.000
11/25/2014 3:35:00a 332 2 6 16 16 70.3 60.2 30.40 1.81 0.0 0 0.00 0.00 0.00 0.000
11/25/2014 3:36:00a 315 1 6 16 16 70.3 60.4 30.40 1.81 0.0 0 0.00 0.00 0.00 0.000
11/25/2014 3:37:00a 315 2 6 16 16 70.3 60.6 30.40 1.81 0.0 0 0.00 0.00 0.00 0.000
11/25/2014 3:38:00a 315 0 6 16 16 70.3 60.8 30.40 1.81 0.0 0 0.00 0.00 0.00 0.000
11/25/2014 3:39:00a 314 3 6 16 16 70.1 60.9 30.40 1.81 0.0 0 0.00 0.00 0.00 0.000
11/25/2014 3:40:06a 315 1 6 16 16 70.1 61.0 30.40 1.81 0.0 0 0.00 0.00 0.00 0.000
11/25/2014 3:41:06a 327 2 6 16 16 70.1 61.1 30.40 1.81 0.0 0 0.00 0.00 0.00 0.000
11/25/2014 3:42:06a 327 0 6 16 16 70.1 61.1 30.40 1.81 0.0 0 0.00 0.00 0.00 0.000
11/25/2014 3:43:06a 327 0 6 16 17 70.1 61.0 30.40 1.81 0.0 0 0.00 0.00 0.00 0.000
11/25/2014 3:44:09a 326 0 6 16 16 69.9 61.0 30.40 1.81 0.0 0 0.00 0.00 0.00 0.000
11/25/2014 3:45:10a 327 1 6 16 16 69.9 61.0 30.40 1.81 0.0 0 0.00 0.00 0.00 0.000
11/25/2014 3:46:13a 327 1 6 16 16 69.9 61.0 30.40 1.81 0.0 0 0.00 0.00 0.00 0.000
11/25/2014 3:47:13a 327 0 6 16 16 69.9 61.0 30.40 1.81 0.0 0 0.00 0.00 0.00 0.000
11/25/2014 3:48:13a 328 3 6 16 15 69.9 61.0 30.40 1.81 0.0 0 0.00 0.00 0.00 0.000
11/25/2014 3:49:13a 328 0 3 16 15 69.9 61.2 30.40 1.81 0.0 0 0.00 0.00 0.00 0.000
11/25/2014 3:50:13a 328 0 3 16 16 69.9 61.1 30.40 1.81 0.0 0 0.00 0.00 0.00 0.000
11/25/2014 3:51:13a 328 0 3 16 16 69.8 60.9 30.40 1.81 0.0 0 0.00 0.00 0.00 0.000
11/25/2014 3:52:13a 328 1 3 16 17 69.8 60.7 30.40 1.81 0.0 0 0.00 0.00 0.00 0.000
11/25/2014 3:53:13a 328 2 3 16 16 69.8 60.5 30.40 1.81 0.0 0 0.00 0.00 0.00 0.000
11/25/2014 3:54:13a 328 1 3 16 16 69.8 60.3 30.40 1.81 0.0 0 0.00 0.00 0.00 0.000
11/25/2014 3:55:13a 328 1 3 16 16 69.8 60.3 30.40 1.81 0.0 0 0.00 0.00 0.00 0.000
11/25/2014 3:56:13a 328 1 3 16 16 69.8 60.2 30.40 1.81 0.0 0 0.00 0.00 0.00 0.000
11/25/2014 3:57:14a 328 0 3 16 16 69.6 60.1 30.40 1.81 0.0 0 0.00 0.00 0.00 0.000
11/25/2014 3:58:14a 328 2 3 16 17 69.6 59.9 30.40 1.81 0.0 0 0.00 0.00 0.00 0.000
11/25/2014 3:59:14a 329 2 3 16 17 69.6 59.7 30.40 1.81 0.0 0 0.00 0.00 0.00 0.000
11/25/2014 4:00:17a 329 1 3 16 16 69.6 59.3 30.40 1.81 0.0 0 0.00 0.00 0.00 0.000
11/25/2014 4:01:17a 329 0 3 16 16 69.6 59.3 30.41 1.81 0.0 0 0.00 0.00 0.00 0.000
11/25/2014 4:02:17a 268 3 4 16 17 69.6 59.3 30.40 1.81 0.0 0 0.00 0.00 0.00 0.000
11/25/2014 4:03:17a 268 0 4 16 16 69.6 59.3 30.40 1.81 0.0 0 0.00 0.00 0.00 0.000
11/25/2014 4:04:17a 268 2 3 16 17 69.4 59.1 30.41 1.81 0.0 0 0.00 0.00 0.00 0.000
11/25/2014 4:05:20a 67 1 4 16 17 69.4 58.9 30.41 1.81 0.0 0 0.00 0.00 0.00 0.000
11/25/2014 4:06:20a 67 0 4 16 17 69.4 59.0 30.41 1.81 0.0 0 0.00 0.00 0.00 0.000
11/25/2014 4:07:20a 140 4 4 16 17 69.4 59.0 30.41 1.81 0.0 0 0.00 0.00 0.00 0.000
11/25/2014 4:08:20a 351 3 6 16 17 69.4 58.8 30.41 1.81 0.0 0 0.00 0.00 0.00 0.000
11/25/2014 4:09:20a 175 2 6 16 17 69.4 58.7 30.41 1.81 0.0 0 0.00 0.00 0.00 0.000
11/25/2014 4:10:20a 159 6 6 16 18 69.4 58.6 30.41 1.81 0.0 0 0.00 0.00 0.00 0.000
11/25/2014 4:11:20a 169 3 6 16 19 69.4 58.4 30.41 1.81 0.0 0 0.00 0.00 0.00 0.000
11/25/2014 4:12:21a 169 1 6 16 19 69.3 58.1 30.41 1.81 0.0 0 0.00 0.00 0.00 0.000
11/25/2014 4:13:21a 169 3 6 16 19 69.3 57.6 30.41 1.81 0.0 0 0.00 0.00 0.00 0.000
11/25/2014 4:14:21a 142 2 6 16 19 69.3 57.2 30.41 1.81 0.0 0 0.00 0.00 0.00 0.000
11/25/2014 4:15:21a 141 0 6 16 20 69.3 56.8 30.42 1.81 0.0 0 0.00 0.00 0.00 0.000
11/25/2014 4:16:21a 141 0 6 16 21 69.3 56.4 30.42 1.81 0.0 0 0.00 0.00 0.00 0.000
11/25/2014 4:17:21a 142 1 6 16 21 69.3 56.0 30.42 1.81 0.0 0 0.00 0.00 0.00 0.000
11/25/2014 4:18:21a 142 0 6 16 21 69.3 55.6 30.42 1.81 0.0 0 0.00 0.00 0.00 0.000
11/25/2014 4:19:21a 142 1 2 16 21 69.3 55.3 30.42 1.81 0.0 0 0.00 0.00 0.00 0.000
11/25/2014 4:20:21a 142 0 2 16 21 69.1 55.0 30.42 1.81 0.0 0 0.00 0.00 0.00 0.000
11/25/2014 4:21:21a 148 3 3 16 22 69.1 54.7 30.42 1.81 0.0 0 0.00 0.00 0.00 0.000
11/25/2014 4:22:21a 195 4 4 16 22 69.1 54.6 30.42 1.81 0.0 0 0.00 0.00 0.00 0.000
11/25/2014 4:23:21a 194 0 4 16 22 69.1 54.4 30.42 1.81 0.0 0 0.00 0.00 0.00 0.000
11/25/2014 4:24:21a 184 3 4 16 22 69.1 54.3 30.42 1.81 0.0 0 0.00 0.00 0.00 0.000
11/25/2014 4:25:22a 184 0 4 16 22 69.1 54.2 30.42 1.81 0.0 0 0.00 0.00 0.00 0.000
11/25/2014 4:26:22a 88 2 4 16 22 69.1 54.0 30.42 1.81 0.0 0 0.00 0.00 0.00 0.000
11/25/2014 4:27:28a 88 0 4 16 22 68.9 54.0 30.42 1.81 0.0 0 0.00 0.00 0.00 0.000
11/25/2014 4:28:28a 88 0 4 16 22 68.9 54.0 30.42 1.81 0.0 0 0.00 0.00 0.00 0.000
11/25/2014 4:29:28a 40 3 4 16 22 68.9 53.9 30.42 1.81 0.0 0 0.00 0.00 0.00 0.000
11/25/2014 4:30:28a 44 1 4 16 22 68.9 53.8 30.42 1.81 0.0 0 0.00 0.00 0.00 0.000
11/25/2014 4:31:28a 43 0 4 16 22 68.9 53.7 30.42 1.81 0.0 0 0.00 0.00 0.00 0.000
11/25/2014 4:32:28a 43 1 4 16 22 68.9 53.6 30.42 1.81 0.0 0 0.00 0.00 0.00 0.000
11/25/2014 4:33:28a 43 0 0 16 22 68.9 53.6 30.43 1.81 0.0 0 0.00 0.00 0.00 0.000
11/25/2014 4:34:28a 44 0 1 16 22 68.9 53.5 30.42 1.81 0.0 0 0.00 0.00 0.00 0.000
11/25/2014 4:35:31a 43 1 1 16 22 68.8 53.5 30.43 1.81 0.0 0 0.00 0.00 0.00 0.000
11/25/2014 4:36:32a 44 0 1 16 22 68.8 53.5 30.43 1.81 0.0 0 0.00 0.00 0.00 0.000
11/25/2014 4:37:32a 44 2 3 16 22 68.8 53.5 30.43 1.81 0.0 0 0.00 0.00 0.00 0.000
11/25/2014 4:38:32a 44 0 3 16 21 68.8 53.4 30.43 1.81 0.0 0 0.00 0.00 0.00 0.000
11/25/2014 4:39:32a 92 1 3 16 21 68.8 53.5 30.43 1.81 0.0 0 0.00 0.00 0.00 0.000
11/25/2014 4:40:32a 100 0 3 16 21 68.8 53.5 30.43 1.81 0.0 0 0.00 0.00 0.00 0.000
11/25/2014 4:41:32a 100 0 3 16 21 68.8 53.6 30.43 1.81 0.0 0 0.00 0.00 0.00 0.000
11/25/2014 4:42:32a 100 0 3 16 21 68.8 53.6 30.43 1.81 0.0 0 0.00 0.00 0.00 0.000
11/25/2014 4:43:32a 90 2 3 16 21 68.6 53.6 30.43 1.81 0.0 0 0.00 0.00 0.00 0.000
11/25/2014 4:44:32a 92 1 3 16 21 68.6 53.8 30.43 1.81 0.0 0 0.00 0.00 0.00 0.000
11/25/2014 4:45:33a 92 2 3 16 21 68.6 53.8 30.43 1.81 0.0 0 0.00 0.00 0.00 0.000
11/25/2014 4:46:33a 92 0 3 16 21 68.6 53.8 30.43 1.81 0.0 0 0.00 0.00 0.00 0.000
11/25/2014 4:47:33a 92 0 3 16 20 68.6 54.0 30.43 1.81 0.0 0 0.00 0.00 0.00 0.000
11/25/2014 4:48:33a 91 0 0 16 20 68.6 54.0 30.43 1.81 0.0 0 0.00 0.00 0.00 0.000
11/25/2014 4:49:36a 91 0 0 16 21 68.6 54.1 30.43 1.81 0.0 0 0.00 0.00 0.00 0.000
11/25/2014 4:50:36a 91 0 1 16 21 68.4 54.0 30.43 1.81 0.0 0 0.00 0.00 0.00 0.000
11/25/2014 4:51:39a 91 1 1 16 21 68.4 54.0 30.43 1.81 0.0 0 0.00 0.00 0.00 0.000
11/25/2014 4:52:39a 91 0 1 16 21 68.4 53.9 30.43 1.81 0.0 0 0.00 0.00 0.00 0.000
11/25/2014 4:53:39a 90 0 1 16 22 68.4 53.8 30.43 1.81 0.0 0 0.00 0.00 0.00 0.000
11/25/2014 4:54:39a 90 0 1 16 22 68.4 53.6 30.43 1.81 0.0 0 0.00 0.00 0.00 0.000
11/25/2014 4:55:39a 90 1 1 16 22 68.4 53.5 30.44 1.81 0.0 0 0.00 0.00 0.00 0.000
11/25/2014 4:56:39a 6 4 4 16 22 68.4 53.4 30.44 1.81 0.0 0 0.00 0.00 0.00 0.000
11/25/2014 4:57:43a 5 4 4 16 21 68.4 53.2 30.44 1.81 0.0 0 0.00 0.00 0.00 0.000
11/25/2014 4:58:43a 5 2 4 16 21 68.3 53.2 30.44 1.81 0.0 0 0.00 0.00 0.00 0.000
11/25/2014 4:59:43a 5 1 4 16 21 68.3 53.1 30.44 1.81 0.0 0 0.00 0.00 0.00 0.000
11/25/2014 5:00:43a 5 0 4 16 21 68.3 52.7 30.44 1.81 0.0 0 0.00 0.00 0.00 0.000
11/25/2014 5:01:43a 5 0 4 16 21 68.3 52.3 30.44 1.81 0.0 0 0.00 0.00 0.00 0.000
11/25/2014 5:02:43a 5 0 4 16 22 68.3 51.9 30.44 1.81 0.0 0 0.00 0.00 0.00 0.000
11/25/2014 5:03:46a 5 0 0 16 22 68.3 51.7 30.44 1.81 0.0 0 0.00 0.00 0.00 0.000
11/25/2014 5:04:46a 5 0 1 16 22 68.3 51.5 30.44 1.81 0.0 0 0.00 0.00 0.00 0.000
11/25/2014 5:05:46a 357 4 4 16 22 68.3 51.3 30.44 1.81 0.0 0 0.00 0.00 0.00 0.000
11/25/2014 5:06:46a 348 4 4 16 22 68.1 51.2 30.44 1.81 0.0 0 0.00 0.00 0.00 0.000
11/25/2014 5:07:52a 348 0 4 16 22 68.1 51.2 30.45 1.81 0.0 0 0.00 0.00 0.00 0.000
11/25/2014 5:08:52a 348 0 4 16 23 68.1 51.3 30.45 1.81 0.0 0 0.00 0.00 0.00 0.000
11/25/2014 5:09:53a 348 0 4 16 23 68.1 51.3 30.44 1.81 0.0 0 0.00 0.00 0.00 0.000
11/25/2014 5:10:53a 348 0 4 16 25 68.1 51.3 30.45 1.81 0.0 0 0.00 0.00 0.00 0.000
11/25/2014 5:11:53a 348 0 4 16 24 68.1 51.3 30.45 1.81 0.0 0 0.00 0.00 0.00 0.000
11/25/2014 5:12:53a 348 0 4 16 23 68.1 51.2 30.45 1.81 0.0 0 0.00 0.00 0.00 0.000
11/25/2014 5:13:53a 348 1 4 16 22 67.9 51.2 30.45 1.81 0.0 0 0.00 0.00 0.00 0.000
11/25/2014 5:14:53a 348 3 4 16 22 67.9 51.1 30.45 1.81 0.0 0 0.00 0.00 0.00 0.000
11/25/2014 5:15:53a 348 2 4 16 22 67.9 51.1 30.45 1.81 0.0 0 0.00 0.00 0.00 0.000
11/25/2014 5:16:53a 348 0 4 16 23 67.9 51.0 30.45 1.81 0.0 0 0.00 0.00 0.00 0.000
11/25/2014 5:17:56a 348 0 4 16 24 67.9 51.0 30.45 1.81 0.0 0 0.00 0.00 0.00 0.000
11/25/2014 5:18:56a 348 0 2 16 23 67.9 51.0 30.45 1.81 0.0 0 0.00 0.00 0.00 0.000
11/25/2014 5:20:02a 348 1 2 16 23 67.9 51.1 30.45 1.81 0.0 0 0.00 0.00 0.00 0.000
11/25/2014 5:21:02a 348 0 2 16 23 67.9 51.0 30.45 1.81 0.0 0 0.00 0.00 0.00 0.000
11/25/2014 5:22:02a 348 0 2 16 23 67.8 51.1 30.45 1.81 0.0 0 0.00 0.00 0.00 0.000
11/25/2014 5:23:02a 348 1 2 16 22 67.8 51.0 30.45 1.81 0.0 0 0.00 0.00 0.00 0.000
11/25/2014 5:24:02a 348 2 2 16 22 67.8 51.0 30.45 1.81 0.0 0 0.00 0.00 0.00 0.000
11/25/2014 5:25:06a 348 1 2 16 23 67.8 51.0 30.45 1.81 0.0 0 0.00 0.00 0.00 0.000
11/25/2014 5:26:06a 348 1 2 16 23 67.8 51.0 30.45 1.81 0.0 0 0.00 0.00 0.00 0.000
11/25/2014 5:27:12a 348 3 3 16 23 67.8 51.0 30.45 1.81 0.0 0 0.00 0.00 0.00 0.000
11/25/2014 5:28:12a 348 2 3 16 23 67.8 51.0 30.45 1.81 0.0 0 0.00 0.00 0.00 0.000
11/25/2014 5:29:15a 348 3 3 16 23 67.8 51.0 30.45 1.81 0.0 0 0.00 0.00 0.00 0.000
11/25/2014 5:30:15a 348 1 3 16 23 67.6 51.0 30.45 1.81 0.0 0 0.00 0.00 0.00 0.000
11/25/2014 5:31:15a 348 2 3 16 23 67.6 51.0 30.45 1.81 0.0 0 0.00 0.00 0.00 0.000
11/25/2014 5:32:15a 348 3 4 16 24 67.6 50.9 30.45 1.81 0.0 0 0.00 0.00 0.00 0.000
11/25/2014 5:33:15a 348 3 4 16 22 67.6 50.9 30.45 1.81 0.0 0 0.00 0.00 0.00 0.000
11/25/2014 5:34:21a 348 3 4 16 22 67.6 50.8 30.45 1.81 0.0 0 0.00 0.00 0.00 0.000
11/25/2014 5:35:21a 347 4 4 16 22 67.6 50.8 30.45 1.81 0.0 0 0.00 0.00 0.00 0.000
11/25/2014 5:36:22a 346 3 4 16 22 67.6 50.8 30.45 1.81 0.0 0 0.00 0.00 0.00 0.000
11/25/2014 5:37:22a 346 3 4 16 22 67.5 50.9 30.46 1.81 0.0 0 0.00 0.00 0.00 0.000
11/25/2014 5:38:25a 346 2 4 16 22 67.5 50.9 30.46 1.81 0.0 0 0.00 0.00 0.00 0.000
11/25/2014 5:39:28a 346 3 4 16 22 67.5 50.9 30.45 1.81 0.0 0 0.00 0.00 0.00 0.000
11/25/2014 5:40:28a 346 1 4 16 22 67.5 50.9 30.45 1.81 0.0 0 0.00 0.00 0.00 0.000
11/25/2014 5:41:28a 346 0 4 16 22 67.5 50.9 30.45 1.81 0.0 0 0.00 0.00 0.00 0.000
11/25/2014 5:42:28a 346 1 4 16 22 67.5 50.8 30.45 1.81 0.0 0 0.00 0.00 0.00 0.000
11/25/2014 5:43:28a 346 3 4 16 22 67.3 50.7 30.46 1.81 0.0 0 0.00 0.00 0.00 0.000
11/25/2014 5:44:28a 346 4 4 16 22 67.3 50.6 30.46 1.81 0.0 0 0.00 0.00 0.00 0.000
11/25/2014 5:45:28a 341 5 5 16 22 67.3 50.5 30.46 1.81 0.0 0 0.00 0.00 0.00 0.000
11/25/2014 5:46:28a 341 3 5 16 23 67.3 50.5 30.46 1.81 0.0 0 0.00 0.00 0.00 0.000
11/25/2014 5:47:29a 341 1 5 16 23 67.3 50.5 30.46 1.81 0.0 0 0.00 0.00 0.00 0.000
11/25/2014 5:48:32a 341 1 1 16 23 67.3 50.5 30.46 1.81 0.0 0 0.00 0.00 0.00 0.000
11/25/2014 5:49:32a 341 2 2 16 23 67.3 50.5 30.46 1.81 0.0 0 0.00 0.00 0.00 0.000
11/25/2014 5:50:32a 341 3 3 16 23 67.1 50.5 30.46 1.81 0.0 0 0.00 0.00 0.00 0.000
11/25/2014 5:51:32a 341 3 4 16 23 67.1 50.5 30.46 1.81 0.0 0 0.00 0.00 0.00 0.000
11/25/2014 5:52:32a 342 3 4 16 22 67.1 50.4 30.46 1.81 0.0 0 0.00 0.00 0.00 0.000
11/25/2014 5:53:32a 342 4 4 16 22 67.1 50.4 30.46 1.81 0.0 0 0.00 0.00 0.00 0.000
11/25/2014 5:54:38a 341 3 4 16 22 67.1 50.2 30.46 1.81 0.0 0 0.00 0.00 0.00 0.000
11/25/2014 5:55:38a 342 3 4 16 22 67.1 50.1 30.46 1.81 0.0 0 0.00 0.00 0.00 0.000
11/25/2014 5:56:38a 341 4 5 16 23 67.1 50.0 30.46 1.81 0.0 0 0.00 0.00 0.00 0.000
11/25/2014 5:57:38a 324 4 5 16 23 67.1 50.0 30.46 1.81 0.0 0 0.00 0.00 0.00 0.000
11/25/2014 5:58:38a 324 2 5 16 23 67.0 50.0 30.46 1.81 0.0 0 0.00 0.00 0.00 0.000
11/25/2014 5:59:38a 324 3 5 16 23 67.0 50.0 30.46 1.81 0.0 0 0.00 0.00 0.00 0.000
11/25/2014 6:00:38a 323 4 5 16 23 67.0 49.9 30.46 1.81 0.0 0 0.00 0.00 0.00 0.000
11/25/2014 6:01:38a 325 5 5 16 23 67.0 49.9 30.46 1.81 0.0 0 0.00 0.00 0.00 0.000
11/25/2014 6:02:39a 325 4 5 16 23 67.0 49.9 30.46 1.81 0.0 0 0.00 0.00 0.00 0.000
11/25/2014 6:03:39a 325 4 5 16 23 67.0 49.9 30.46 1.81 0.0 0 0.00 0.00 0.00 0.000
11/25/2014 6:04:39a 325 5 5 16 23 67.0 49.9 30.46 1.81 0.0 0 0.00 0.00 0.00 0.000
11/25/2014 6:05:39a 325 4 5 16 23 66.8 49.9 30.46 1.81 0.0 0 0.00 0.00 0.00 0.000
11/25/2014 6:06:39a 325 3 5 16 23 66.8 50.0 30.46 1.81 0.0 0 0.00 0.00 0.00 0.000
11/25/2014 6:07:39a 325 3 5 16 23 66.8 50.1 30.46 1.81 0.0 0 0.00 0.00 0.00 0.000
11/25/2014 6:08:39a 325 4 5 16 23 66.8 50.2 30.46 1.81 0.0 0 0.00 0.00 0.00 0.000
11/25/2014 6:09:39a 325 3 5 16 23 66.8 50.4 30.46 1.81 0.0 0 0.00 0.00 0.00 0.000
11/25/2014 6:10:39a 325 2 5 16 23 66.8 50.5 30.46 1.81 0.0 0 0.00 0.00 0.00 0.000
11/25/2014 6:11:39a 325 3 5 16 22 66.8 50.6 30.46 1.81 0.0 0 0.00 0.00 0.00 0.000
11/25/2014 6:12:39a 325 2 5 16 22 66.8 50.7 30.46 1.81 0.0 0 0.00 0.00 0.00 0.000
11/25/2014 6:13:40a 325 1 5 16 23 66.7 50.8 30.46 1.81 0.0 0 0.00 0.00 0.00 0.000
11/25/2014 6:14:40a 325 2 5 16 23 66.7 50.8 30.46 1.81 0.0 0 0.00 0.00 0.00 0.000
11/25/2014 6:15:40a 325 3 5 16 23 66.7 50.9 30.46 1.81 0.0 0 0.00 0.00 0.00 0.000
11/25/2014 6:16:43a 325 3 5 16 23 66.7 50.9 30.46 1.81 0.0 0 0.00 0.00 0.00 0.000
11/25/2014 6:17:43a 341 3 5 16 23 66.7 50.9 30.46 1.81 0.0 0 0.00 0.00 0.00 0.000
11/25/2014 6:18:43a 338 4 4 16 22 66.7 50.9 30.46 1.81 0.0 0 0.00 0.00 0.00 0.000
11/25/2014 6:19:43a 340 3 4 16 22 66.7 51.0 30.46 1.81 0.0 0 0.00 0.00 0.00 0.000
11/25/2014 6:20:43a 340 2 4 16 22 66.7 51.0 30.46 1.81 0.0 0 0.00 0.00 0.00 0.000
11/25/2014 6:21:43a 340 2 4 16 22 66.5 51.0 30.46 1.81 0.0 0 0.00 0.00 0.00 0.000
11/25/2014 6:22:43a 340 2 4 16 22 66.5 51.1 30.45 1.81 0.0 0 0.00 0.00 0.00 0.000
11/25/2014 6:23:43a 340 3 4 16 22 66.5 51.1 30.46 1.81 0.0 0 0.00 0.00 0.00 0.000
11/25/2014 6:24:43a 340 3 4 16 22 66.5 51.1 30.46 1.81 0.0 0 0.00 0.00 0.00 0.000
11/25/2014 6:25:44a 340 2 4 16 22 66.5 51.0 30.45 1.81 0.0 0 0.00 0.00 0.00 0.000
11/25/2014 6:26:44a 340 2 4 16 23 66.5 51.0 30.46 1.81 0.0 0 0.00 0.00 0.00 0.000
11/25/2014 6:27:44a 340 1 4 16 23 66.5 50.9 30.46 1.81 0.0 0 0.00 0.00 0.00 0.000
11/25/2014 6:28:44a 333 3 4 16 23 66.5 50.9 30.46 1.81 0.0 0 0.00 0.00 0.00 0.000
11/25/2014 6:29:47a 334 4 5 16 23 66.3 51.0 30.46 1.81 0.0 0 0.00 0.00 0.00 0.000
11/25/2014 6:30:47a 334 2 5 16 22 66.3 51.0 30.46 1.81 0.0 0 0.00 0.00 0.00 0.000
11/25/2014 6:31:47a 334 4 5 16 23 66.3 51.1 30.46 1.81 0.0 0 0.00 0.00 0.00 0.000
11/25/2014 6:32:47a 334 3 5 16 23 66.3 51.2 30.46 1.81 0.0 0 0.00 0.00 0.00 0.000
11/25/2014 6:33:53a 334 4 4 16 22 66.3 51.2 30.46 1.81 0.0 5 0.00 0.00 0.00 0.000
11/25/2014 6:34:53a 334 3 4 16 22 66.3 51.2 30.46 1.81 0.0 5 0.00 0.00 0.00 0.000
11/25/2014 6:35:53a 332 4 5 16 22 66.3 51.2 30.46 1.81 0.0 5 0.00 0.00 0.00 0.000
11/25/2014 6:36:53a 332 1 5 16 22 66.3 51.2 30.46 1.81 0.0 5 0.00 0.00 0.00 0.000
11/25/2014 6:37:54a 332 1 5 16 23 66.3 51.2 30.46 1.81 0.0 5 0.00 0.00 0.00 0.000
11/25/2014 6:38:54a 332 2 5 16 22 66.2 51.3 30.46 1.81 0.0 7 0.00 0.00 0.00 0.000
11/25/2014 6:39:54a 332 3 5 16 22 66.2 51.4 30.46 1.81 0.0 7 0.00 0.00 0.00 0.000
11/25/2014 6:40:54a 332 2 5 16 22 66.2 51.6 30.46 1.81 0.0 7 0.00 0.00 0.00 0.000
11/25/2014 6:41:54a 332 3 5 16 21 66.2 51.9 30.46 1.81 0.0 9 0.00 0.00 0.00 0.000
11/25/2014 6:42:57a 332 3 5 16 21 66.2 52.1 30.46 1.81 0.0 9 0.00 0.00 0.00 0.000
11/25/2014 6:43:57a 332 3 5 16 21 66.2 52.4 30.46 1.81 0.0 11 0.00 0.00 0.00 0.000
11/25/2014 6:45:00a 332 2 5 16 22 66.2 52.6 30.46 1.81 0.0 11 0.00 0.00 0.00 0.000
11/25/2014 6:46:00a 332 2 5 16 21 66.2 52.6 30.46 1.81 0.0 11 0.00 0.00 0.00 0.000
11/25/2014 6:47:00a 333 3 5 16 21 66.2 52.6 30.46 1.81 0.0 12 0.00 0.00 0.00 0.000
11/25/2014 6:48:00a 335 4 5 16 21 66.2 52.6 30.46 1.81 0.0 12 0.00 0.00 0.00 0.000
11/25/2014 6:49:01a 346 3 4 16 20 66.0 52.6 30.46 1.81 0.0 12 0.00 0.00 0.00 0.000
11/25/2014 6:50:01a 346 4 4 16 20 66.0 52.6 30.46 1.81 0.0 12 0.00 0.00 0.00 0.000
11/25/2014 6:51:04a 346 4 4 16 20 66.0 52.6 30.46 1.81 0.0 12 0.00 0.00 0.00 0.000
11/25/2014 6:52:04a 346 4 4 16 20 66.0 52.6 30.46 1.81 0.0 14 0.00 0.00 0.00 0.000
11/25/2014 6:53:04a 345 4 5 16 20 66.0 52.6 30.46 1.81 0.0 14 0.00 0.00 0.00 0.000
11/25/2014 6:54:10a 346 2 5 16 20 66.0 52.6 30.46 1.81 0.0 14 0.00 0.00 0.00 0.000
11/25/2014 6:55:10a 346 3 5 16 20 66.0 52.6 30.46 1.81 0.0 14 0.00 0.00 0.00 0.000
11/25/2014 6:56:11a 346 3 5 16 20 66.0 52.7 30.46 1.81 0.0 16 0.00 0.00 0.00 0.000
11/25/2014 6:57:11a 346 4 5 16 20 65.8 52.7 30.46 1.81 0.0 16 0.00 0.00 0.00 0.000
11/25/2014 6:58:11a 346 2 5 16 20 65.8 52.7 30.46 1.81 0.0 16 0.00 0.00 0.00 0.000
11/25/2014 6:59:11a 345 2 5 16 20 65.8 52.8 30.46 1.81 0.0 16 0.00 0.00 0.00 0.000
11/25/2014 7:00:11a 345 3 5 16 20 65.8 52.9 30.46 1.81 0.0 18 0.00 0.00 0.00 0.000
11/25/2014 7:01:11a 345 2 5 16 20 65.8 53.1 30.46 1.81 0.0 18 0.00 0.00 0.00 0.000
11/25/2014 7:02:11a 346 3 5 16 20 65.8 53.3 30.46 1.81 0.0 18 0.00 0.00 0.00 0.000
11/25/2014 7:03:11a 346 2 5 16 20 65.8 53.4 30.46 1.81 0.0 18 0.00 0.00 0.00 0.000
11/25/2014 7:04:14a 346 3 3 16 21 65.8 53.4 30.46 1.81 0.0 18 0.00 0.00 0.00 0.000
11/25/2014 7:05:14a 346 4 4 16 21 65.7 53.4 30.46 1.81 0.0 19 0.00 0.00 0.00 0.000
11/25/2014 7:06:14a 345 3 4 16 20 65.7 53.5 30.46 1.81 0.0 19 0.00 0.00 0.00 0.000
11/25/2014 7:07:14a 345 1 4 16 20 65.7 53.5 30.46 1.81 0.0 19 0.00 0.00 0.00 0.000
11/25/2014 7:08:15a 346 2 4 16 20 65.7 53.6 30.46 1.81 0.0 19 0.00 0.00 0.00 0.000
11/25/2014 7:09:15a 345 1 4 16 21 65.7 53.6 30.46 1.81 0.0 19 0.00 0.00 0.00 0.000
11/25/2014 7:10:15a 346 1 4 16 21 65.7 53.6 30.46 1.81 0.0 19 0.00 0.00 0.00 0.000
11/25/2014 7:11:15a 346 1 4 16 20 65.7 53.8 30.46 1.81 0.0 19 0.00 0.00 0.00 0.000
11/25/2014 7:12:15a 346 2 4 16 20 65.5 54.0 30.46 1.81 0.0 19 0.00 0.00 0.00 0.000
11/25/2014 7:13:15a 346 2 4 16 19 65.5 54.3 30.46 1.81 0.0 19 0.00 0.00 0.00 0.000
11/25/2014 7:14:15a 346 1 4 16 19 65.5 54.6 30.46 1.81 0.0 21 0.00 0.00 0.00 0.000
11/25/2014 7:15:15a 346 0 4 16 19 65.5 54.8 30.46 1.81 0.0 21 0.00 0.00 0.00 0.000
11/25/2014 7:16:15a 346 0 4 16 20 65.5 55.0 30.46 1.81 0.0 21 0.00 0.00 0.00 0.000
11/25/2014 7:17:15a 345 0 4 16 23 65.5 55.2 30.46 1.81 0.0 21 0.00 0.00 0.00 0.000
11/25/2014 7:18:18a 345 0 4 16 23 65.5 55.1 30.46 1.81 0.0 21 0.00 0.00 0.00 0.000
11/25/2014 7:19:18a 346 0 0 16 23 65.5 55.0 30.46 1.81 0.0 21 0.00 0.00 0.00 0.000
11/25/2014 7:20:18a 346 0 1 16 23 65.4 54.9 30.46 1.81 0.0 21 0.00 0.00 0.00 0.000
11/25/2014 7:21:19a 345 0 1 16 23 65.4 54.8 30.47 1.81 0.0 21 0.00 0.00 0.00 0.000
11/25/2014 7:22:19a 346 0 1 16 22 65.4 54.9 30.47 1.81 0.0 23 0.00 0.00 0.00 0.000
11/25/2014 7:23:19a 346 0 1 16 22 65.4 54.9 30.47 1.81 0.0 23 0.00 0.00 0.00 0.000
11/25/2014 7:24:19a 345 0 1 16 22 65.4 55.1 30.47 1.81 0.0 23 0.00 0.00 0.00 0.000
11/25/2014 7:25:19a 345 0 1 16 21 65.4 55.2 30.47 1.81 0.0 23 0.00 0.00 0.00 0.000
11/25/2014 7:26:19a 346 2 2 16 21 65.4 55.3 30.47 1.81 0.0 23 0.00 0.00 0.00 0.000
11/25/2014 7:27:19a 351 1 3 16 20 65.4 55.5 30.47 1.81 0.0 23 0.00 0.00 0.00 0.000
11/25/2014 7:28:22a 350 0 3 16 19 65.4 55.8 30.46 1.81 0.0 23 0.00 0.00 0.00 0.000
11/25/2014 7:29:22a 351 0 3 16 20 65.2 56.0 30.46 1.81 0.0 25 0.00 0.00 0.00 0.000
11/25/2014 7:30:22a 351 0 3 16 19 65.2 56.4 30.47 1.81 0.0 25 0.00 0.00 0.00 0.000
11/25/2014 7:31:22a 350 0 3 16 19 65.2 56.8 30.47 1.81 0.0 25 0.00 0.00 0.00 0.000
11/25/2014 7:32:22a 350 0 3 16 19 65.2 57.2 30.47 1.81 0.0 25 0.00 0.00 0.00 0.000
11/25/2014 7:33:23a 349 0 3 16 19 65.2 57.6 30.47 1.81 0.0 25 0.00 0.00 0.00 0.000
11/25/2014 7:34:29a 350 2 2 16 19 65.2 58.0 30.46 1.81 0.0 25 0.00 0.00 0.00 0.000
11/25/2014 7:35:29a 350 3 3 16 19 65.2 58.1 30.46 1.81 0.0 26 0.00 0.00 0.00 0.000
11/25/2014 7:36:29a 350 2 3 16 18 65.2 58.3 30.46 1.81 0.0 28 0.00 0.00 0.00 0.000
11/25/2014 7:37:29a 350 1 3 16 18 65.2 58.5 30.47 1.81 0.0 33 0.00 0.00 0.00 0.000
11/25/2014 7:38:29a 350 0 3 16 18 65.0 58.7 30.47 1.81 0.0 37 0.00 0.00 0.00 0.000
11/25/2014 7:39:29a 350 0 3 16 18 65.0 59.1 30.47 1.81 0.0 37 0.00 0.00 0.00 0.000
11/25/2014 7:40:29a 350 1 3 16 18 65.0 59.3 30.47 1.81 0.0 39 0.00 0.00 0.00 0.000
11/25/2014 7:41:29a 350 0 3 16 17 65.0 59.3 30.47 1.81 0.0 54 0.00 0.00 0.00 0.000
11/25/2014 7:42:29a 5 1 3 16 17 65.0 59.3 30.47 1.81 0.0 44 0.00 0.00 0.00 0.000
11/25/2014 7:43:29a 20 1 3 16 17 65.0 59.6 30.47 1.81 0.0 39 0.00 0.00 0.00 0.000
11/25/2014 7:44:30a 21 0 3 16 17 65.0 59.7 30.47 1.81 0.0 37 0.00 0.00 0.00 0.000
11/25/2014 7:45:30a 20 0 3 16 18 65.0 59.7 30.47 1.81 0.0 35 0.00 0.00 0.00 0.000
11/25/2014 7:46:30a 21 0 3 16 18 65.0 59.5 30.47 1.81 0.0 30 0.00 0.00 0.00 0.000
11/25/2014 7:47:30a 21 1 3 16 17 65.0 59.5 30.47 1.81 0.0 28 0.00 0.00 0.00 0.000
11/25/2014 7:48:30a 162 4 4 16 17 64.9 59.5 30.47 1.81 0.0 35 0.00 0.00 0.00 0.000
11/25/2014 7:49:33a 151 4 5 16 18 64.9 59.4 30.47 1.81 0.0 33 0.00 0.00 0.00 0.000
11/25/2014 7:50:33a 183 3 5 16 19 64.9 59.3 30.47 1.81 0.0 39 0.00 0.00 0.00 0.000
11/25/2014 7:51:39a 184 1 5 16 20 64.9 58.6 30.47 1.81 0.0 42 0.00 0.00 0.00 0.000
11/25/2014 7:52:39a 183 2 5 16 20 64.9 57.9 30.48 1.81 0.0 42 0.00 0.00 0.00 0.000
11/25/2014 7:53:39a 184 3 5 16 20 64.9 57.4 30.47 1.81 0.0 62 0.00 0.00 0.00 0.000
11/25/2014 7:54:39a 139 1 5 16 21 64.9 56.9 30.47 1.81 0.0 95 0.00 0.00 0.00 0.000
11/25/2014 7:55:39a 176 1 5 16 22 65.0 56.5 30.48 1.81 0.0 156 0.00 0.00 0.00 0.000
11/25/2014 7:56:39a 174 2 5 16 23 65.0 56.2 30.48 1.81 0.0 211 0.00 0.00 0.00 0.000
11/25/2014 7:57:39a 177 1 5 16 23 65.0 55.9 30.48 1.81 0.5 229 0.00 0.00 0.00 0.000
11/25/2014 7:58:39a 174 1 5 16 23 65.0 55.7 30.48 1.81 0.5 234 0.00 0.00 0.00 0.000
11/25/2014 7:59:39a 174 1 5 16 23 65.0 55.5 30.48 1.81 0.5 237 0.00 0.00 0.00 0.000
11/25/2014 8:00:40a 174 1 5 16 23 65.0 55.5 30.48 1.81 0.5 239 0.00 0.00 0.00 0.000
11/25/2014 8:01:40a 174 0 5 16 23 65.0 55.4 30.48 1.81 0.5 243 0.00 0.00 0.00 0.000
11/25/2014 8:02:40a 174 0 5 16 23 65.0 55.4 30.48 1.81 0.6 244 0.00 0.00 0.00 0.000
11/25/2014 8:03:40a 174 1 1 16 23 65.0 55.4 30.48 1.81 0.6 248 0.00 0.00 0.00 0.000
11/25/2014 8:04:40a 134 1 2 16 22 65.0 55.4 30.48 1.81 0.6 251 0.00 0.00 0.00 0.000
11/25/2014 8:05:40a 123 0 2 16 22 65.0 55.4 30.48 1.81 0.6 255 0.00 0.00 0.00 0.000
11/25/2014 8:06:46a 164 2 2 16 22 65.0 55.4 30.49 1.81 0.6 257 0.00 0.00 0.00 0.000
11/25/2014 8:07:46a 163 1 2 16 22 65.0 55.6 30.48 1.81 0.6 258 0.00 0.00 0.00 0.000
11/25/2014 8:08:46a 151 0 2 16 21 65.0 55.8 30.48 1.81 0.6 262 0.00 0.00 0.00 0.000
11/25/2014 8:09:46a 151 0 2 16 21 65.0 55.9 30.48 1.81 0.6 265 0.00 0.00 0.00 0.000
11/25/2014 8:10:46a 151 0 2 16 21 65.0 56.2 30.48 1.81 0.6 269 0.00 0.00 0.00 0.000
11/25/2014 8:11:46a 151 0 2 16 21 65.2 56.3 30.48 1.81 0.6 271 0.00 0.00 0.00 0.000
11/25/2014 8:12:46a 151 0 2 16 21 65.2 56.4 30.48 1.81 0.6 274 0.00 0.00 0.00 0.000
11/25/2014 8:13:46a 151 0 2 16 21 65.2 56.6 30.48 1.81 0.6 276 0.00 0.00 0.00 0.000
11/25/2014 8:14:47a 151 0 2 16 20 65.2 56.7 30.48 1.81 0.7 279 0.00 0.00 0.00 0.000
11/25/2014 8:15:47a 151 0 2 16 20 65.2 56.9 30.48 1.81 0.7 283 0.00 0.00 0.00 0.000
11/25/2014 8:16:47a 151 0 2 16 19 65.2 57.1 30.48 1.81 0.7 287 0.00 0.00 0.00 0.000
11/25/2014 8:17:47a 151 1 2 16 19 65.2 57.1 30.48 1.81 0.7 288 0.00 0.00 0.00 0.000
11/25/2014 8:18:47a 151 0 0 16 19 65.2 57.2 30.48 1.81 0.7 290 0.00 0.00 0.00 0.000
11/25/2014 8:19:47a 151 0 0 16 19 65.2 57.3 30.48 1.81 0.7 292 0.00 0.00 0.00 0.000
11/25/2014 8:20:47a 151 1 1 16 19 65.4 57.4 30.48 1.81 0.7 295 0.00 0.00 0.00 0.000
11/25/2014 8:21:47a 151 0 1 16 19 65.4 57.5 30.48 1.81 0.7 301 0.00 0.00 0.00 0.000
11/25/2014 8:22:47a 151 0 1 16 19 65.4 57.7 30.48 1.81 0.8 302 0.00 0.00 0.00 0.000
11/25/2014 8:23:47a 151 0 1 16 19 65.4 57.9 30.48 1.81 0.8 306 0.00 0.00 0.00 0.000
11/25/2014 8:24:47a 151 0 1 16 19 65.4 58.0 30.48 1.81 0.8 308 0.00 0.00 0.00 0.000
11/25/2014 8:25:48a 151 0 1 16 18 65.4 58.2 30.48 1.81 0.8 309 0.00 0.00 0.00 0.000
11/25/2014 8:26:48a 151 0 1 16 19 65.4 58.3 30.48 1.81 0.8 315 0.00 0.00 0.00 0.000
11/25/2014 8:27:48a 151 0 1 16 18 65.5 58.5 30.48 1.81 0.8 316 0.00 0.00 0.00 0.000
11/25/2014 8:28:48a 151 1 1 16 19 65.5 58.7 30.48 1.81 0.8 320 0.00 0.00 0.00 0.000
11/25/2014 8:29:51a 151 0 1 16 18 65.5 58.8 30.48 1.81 0.8 322 0.00 0.00 0.00 0.000
11/25/2014 8:30:51a 151 0 1 16 18 65.5 58.9 30.48 1.81 0.8 323 0.00 0.00 0.00 0.000
11/25/2014 8:31:51a 151 1 2 16 18 65.5 59.0 30.48 1.81 0.8 327 0.00 0.00 0.00 0.000
11/25/2014 8:32:54a 151 0 2 16 18 65.5 59.2 30.48 1.81 0.8 332 0.00 0.00 0.00 0.000
11/25/2014 8:33:55a 151 0 0 16 18 65.7 59.3 30.48 1.81 0.9 334 0.00 0.00 0.00 0.000
11/25/2014 8:34:55a 151 0 1 16 18 65.7 59.3 30.48 1.81 0.9 338 0.00 0.00 0.00 0.000
11/25/2014 8:35:58a 151 1 1 16 18 65.7 59.3 30.48 1.81 0.9 339 0.00 0.00 0.00 0.000
11/25/2014 8:36:58a 151 0 1 16 18 65.7 59.3 30.48 1.81 0.9 343 0.00 0.00 0.00 0.000
11/25/2014 8:37:58a 151 0 1 16 18 65.7 59.4 30.48 1.81 0.9 346 0.00 0.00 0.00 0.000
11/25/2014 8:39:04a 151 0 1 16 18 65.8 59.6 30.48 1.81 0.9 348 0.00 0.00 0.00 0.000
11/25/2014 8:40:04a 151 1 1 16 18 65.8 59.6 30.47 1.81 0.9 352 0.00 0.00 0.00 0.000
11/25/2014 8:41:04a 151 1 2 16 18 65.8 59.8 30.47 1.81 0.9 353 0.00 0.00 0.00 0.000
11/25/2014 8:42:07a 151 2 3 16 18 65.8 59.8 30.47 1.81 1.0 357 0.00 0.00 0.00 0.000
11/25/2014 8:43:07a 151 1 3 16 18 66.0 60.0 30.47 1.81 1.0 360 0.00 0.00 0.00 0.000
11/25/2014 8:44:08a 151 1 3 16 18 66.0 60.1 30.47 1.81 1.0 360 0.00 0.00 0.00 0.000
11/25/2014 8:45:08a 151 0 3 16 17 66.0 60.3 30.47 1.81 1.0 366 0.00 0.00 0.00 0.000
11/25/2014 8:46:08a 151 1 3 16 18 66.0 60.4 30.47 1.81 1.0 367 0.00 0.00 0.00 0.000
11/25/2014 8:47:08a 151 1 3 16 18 66.0 60.5 30.47 1.81 1.0 369 0.00 0.00 0.00 0.000
11/25/2014 8:48:08a 151 0 3 16 18 66.2 60.6 30.47 1.81 1.0 369 0.00 0.00 0.00 0.000
11/25/2014 8:49:08a 151 0 0 16 18 66.2 60.7 30.47 1.81 1.1 376 0.00 0.00 0.00 0.000
11/25/2014 8:50:11a 151 0 1 16 18 66.2 60.8 30.47 1.81 1.1 378 0.00 0.00 0.00 0.000
11/25/2014 8:51:11a 151 0 1 16 18 66.2 60.8 30.47 1.81 1.1 381 0.00 0.00 0.00 0.000
11/25/2014 8:52:12a 151 0 2 16 17 66.3 61.0 30.47 1.81 1.1 383 0.00 0.00 0.00 0.000
11/25/2014 8:53:12a 151 1 2 16 17 66.3 61.1 30.47 1.81 1.1 385 0.00 0.00 0.00 0.000
11/25/2014 8:54:12a 151 0 2 16 18 66.3 61.2 30.47 1.81 1.1 390 0.00 0.00 0.00 0.000
11/25/2014 8:55:12a 154 3 3 16 18 66.3 61.4 30.47 1.81 1.1 392 0.00 0.00 0.00 0.000
11/25/2014 8:56:15a 155 1 3 16 18 66.5 61.5 30.47 1.81 1.2 394 0.00 0.00 0.00 0.000
11/25/2014 8:57:15a 157 2 3 16 18 66.5 61.6 30.47 1.81 1.2 397 0.00 0.00 0.00 0.000
11/25/2014 8:58:18a 157 0 4 16 18 66.5 61.7 30.47 1.81 1.2 399 0.00 0.00 0.00 0.000
11/25/2014 8:59:18a 156 0 4 16 19 66.5 61.8 30.47 1.81 1.2 403 0.00 0.00 0.00 0.000
11/25/2014 9:00:18a 174 3 4 16 19 66.7 61.9 30.47 1.81 1.2 406 0.00 0.00 0.00 0.000
11/25/2014 9:01:19a 174 2 4 16 18 66.7 61.9 30.47 1.81 1.2 408 0.00 0.00 0.00 0.000
11/25/2014 9:02:22a 172 2 4 16 18 66.7 61.9 30.47 1.81 1.2 410 0.00 0.00 0.00 0.000
11/25/2014 9:03:22a 172 3 4 16 17 66.7 61.9 30.47 1.81 1.3 413 0.00 0.00 0.00 0.000
11/25/2014 9:04:22a 172 2 3 16 18 66.8 61.9 30.47 1.81 1.3 415 0.00 0.00 0.00 0.000
11/25/2014 9:05:22a 172 1 4 16 18 66.8 62.0 30.47 1.81 1.3 418 0.00 0.00 0.00 0.000
11/25/2014 9:06:28a 169 4 4 16 18 66.8 62.0 30.47 1.81 1.3 420 0.00 0.00 0.00 0.000
11/25/2014 9:07:28a 157 4 4 16 17 67.0 62.1 30.47 1.81 1.3 424 0.00 0.00 0.00 0.000
11/25/2014 9:08:28a 151 3 4 16 18 67.0 62.2 30.47 1.81 1.3 424 0.00 0.00 0.00 0.000
11/25/2014 9:09:28a 174 3 4 16 18 67.0 62.3 30.47 1.81 1.3 427 0.00 0.00 0.00 0.000
11/25/2014 9:10:31a 173 0 4 16 18 67.1 62.5 30.47 1.81 1.3 431 0.00 0.00 0.00 0.000
11/25/2014 9:11:31a 173 2 4 16 17 67.1 62.5 30.47 1.81 1.4 432 0.00 0.00 0.00 0.000
11/25/2014 9:12:31a 176 2 4 16 18 67.1 62.6 30.47 1.81 1.4 434 0.00 0.00 0.00 0.000
11/25/2014 9:13:31a 176 2 4 16 18 67.3 62.7 30.46 1.81 1.4 438 0.00 0.00 0.00 0.000
11/25/2014 9:14:31a 174 1 4 16 18 67.3 62.8 30.46 1.81 1.4 439 0.00 0.00 0.00 0.000
11/25/2014 9:15:31a 174 2 4 16 18 67.3 62.8 30.46 1.81 1.4 443 0.00 0.00 0.00 0.000
11/25/2014 9:16:32a 176 1 4 16 18 67.5 63.0 30.46 1.81 1.4 446 0.00 0.00 0.00 0.000
11/25/2014 9:17:32a 177 2 4 16 18 67.5 63.1 30.47 1.81 1.4 446 0.00 0.00 0.00 0.000
11/25/2014 9:18:32a 176 0 1 16 18 67.5 63.2 30.46 1.81 1.5 448 0.00 0.00 0.00 0.000
11/25/2014 9:19:32a 177 1 3 16 18 67.6 63.3 30.46 1.81 1.5 452 0.00 0.00 0.00 0.000
11/25/2014 9:20:32a 177 3 3 16 18 67.6 63.4 30.46 1.81 1.5 454 0.00 0.00 0.00 0.000
11/25/2014 9:21:32a 176 0 4 16 18 67.6 63.5 30.46 1.81 1.5 457 0.00 0.00 0.00 0.000
11/25/2014 9:22:32a 176 1 4 16 17 67.6 63.7 30.46 1.81 1.5 459 0.00 0.00 0.00 0.000
11/25/2014 9:23:32a 156 0 4 16 17 67.8 63.7 30.46 1.81 1.5 461 0.00 0.00 0.00 0.000
11/25/2014 9:24:32a 155 0 4 16 17 67.8 63.8 30.46 1.81 1.5 461 0.00 0.00 0.00 0.000
11/25/2014 9:26:03a 155 0 4 16 17 67.8 63.8 30.46 1.81 1.5 461 0.00 0.00 0.00 0.000
11/25/2014 9:27:03a 118 1 4 16 17 67.9 64.0 30.46 1.81 1.6 468 0.00 0.00 0.00 0.000
11/25/2014 9:28:07a 123 1 4 16 17 67.9 64.1 30.46 1.81 1.6 471 0.00 0.00 0.00 0.000
11/25/2014 9:29:08a 128 1 4 16 17 67.9 64.2 30.46 1.81 1.6 475 0.00 0.00 0.00 0.000
11/25/2014 9:30:07a 167 1 4 16 17 68.1 64.3 30.46 1.81 1.6 476 0.00 0.00 0.00 0.000
11/25/2014 9:31:07a 166 4 4 16 17 68.1 64.4 30.46 1.81 1.6 478 0.00 0.00 0.00 0.000
11/25/2014 9:32:07a 165 0 4 16 17 68.1 64.5 30.46 1.81 1.6 480 0.00 0.00 0.00 0.000
11/25/2014 9:33:07a 171 3 4 16 17 68.3 64.6 30.46 1.81 1.6 482 0.00 0.00 0.00 0.000
11/25/2014 9:34:08a 169 5 5 16 17 68.3 64.6 30.46 1.81 1.7 483 0.00 0.00 0.00 0.000
11/25/2014 9:35:11a 178 0 5 16 16 68.3 64.7 30.46 1.81 1.7 487 0.00 0.00 0.00 0.000
11/25/2014 9:36:11a 178 0 5 16 17 68.4 64.7 30.46 1.81 1.7 489 0.00 0.00 0.00 0.000
11/25/2014 9:37:11a 89 0 5 16 17 68.4 64.8 30.46 1.81 1.7 490 0.00 0.00 0.00 0.000
11/25/2014 9:38:11a 169 4 5 16 17 68.4 64.8 30.46 1.81 1.7 492 0.00 0.00 0.00 0.000
11/25/2014 9:39:11a 149 3 5 16 17 68.6 65.0 30.46 1.81 1.7 494 0.00 0.00 0.00 0.000
11/25/2014 9:40:14a 160 3 5 16 16 68.6 65.1 30.46 1.81 1.7 496 0.00 0.00 0.00 0.000
11/25/2014 9:41:14a 167 1 5 16 16 68.6 65.1 30.46 1.81 1.8 499 0.00 0.00 0.00 0.000
11/25/2014 9:42:14a 188 4 5 16 16 68.8 65.1 30.46 1.81 1.8 501 0.00 0.00 0.00 0.000
11/25/2014 9:43:14a 167 2 5 16 16 68.8 65.2 30.46 1.81 1.8 503 0.00 0.00 0.00 0.000
11/25/2014 9:44:14a 168 1 5 16 16 68.8 65.3 30.46 1.81 1.8 504 0.00 0.00 0.00 0.000
11/25/2014 9:45:14a 180 2 5 16 16 68.9 65.3 30.46 1.81 1.8 506 0.00 0.00 0.00 0.000
11/25/2014 9:46:14a 178 4 5 16 16 68.9 65.4 30.46 1.81 1.8 508 0.00 0.00 0.00 0.000
11/25/2014 9:47:15a 178 0 5 16 17 68.9 65.4 30.46 1.81 1.8 512 0.00 0.00 0.00 0.000
11/25/2014 9:48:15a 156 2 5 16 17 69.1 65.5 30.46 1.81 1.9 513 0.00 0.00 0.00 0.000
11/25/2014 9:49:15a 156 3 5 16 16 69.1 65.7 30.46 1.81 1.9 515 0.00 0.00 0.00 0.000
11/25/2014 9:50:18a 165 0 5 16 15 69.1 65.8 30.46 1.81 1.9 517 0.00 0.00 0.00 0.000
11/25/2014 9:51:18a 152 1 5 16 16 69.3 65.9 30.46 1.81 1.9 519 0.00 0.00 0.00 0.000
11/25/2014 9:52:21a 174 0 5 16 16 69.3 66.0 30.46 1.81 1.9 522 0.00 0.00 0.00 0.000
11/25/2014 9:53:21a 187 4 5 16 16 69.3 66.1 30.46 1.81 1.9 524 0.00 0.00 0.00 0.000
11/25/2014 9:54:21a 176 3 5 16 15 69.3 66.2 30.46 1.81 1.9 524 0.00 0.00 0.00 0.000
11/25/2014 9:55:21a 165 1 5 16 15 69.4 66.2 30.45 1.81 1.9 527 0.00 0.00 0.00 0.000
11/25/2014 9:56:21a 163 2 5 16 15 69.4 66.3 30.45 1.81 2.0 527 0.00 0.00 0.00 0.000
11/25/2014 9:57:21a 161 0 5 16 16 69.4 66.4 30.45 1.81 2.0 531 0.00 0.00 0.00 0.000
11/25/2014 9:58:22a 167 3 5 16 16 69.6 66.5 30.45 1.81 2.0 533 0.00 0.00 0.00 0.000
11/25/2014 9:59:22a 157 0 5 16 15 69.6 66.4 30.45 1.81 2.0 534 0.00 0.00 0.00 0.000
11/25/2014 10:00:22a 161 3 5 16 16 69.8 66.4 30.45 1.81 2.0 536 0.00 0.00 0.00 0.000
11/25/2014 10:01:22a 162 2 5 16 16 69.8 66.5 30.45 1.81 2.0 538 0.00 0.00 0.00 0.000
11/25/2014 10:02:22a 161 2 5 16 16 69.8 66.6 30.45 1.81 2.0 538 0.00 0.00 0.00 0.000
11/25/2014 10:03:22a 161 1 5 16 15 69.9 66.6 30.44 1.81 2.0 541 0.00 0.00 0.00 0.000
11/25/2014 10:04:22a 161 2 2 16 16 69.9 66.7 30.45 1.81 2.1 543 0.00 0.00 0.00 0.000
11/25/2014 10:05:22a 161 1 3 16 16 69.9 66.8 30.45 1.81 2.1 545 0.00 0.00 0.00 0.000
11/25/2014 10:06:22a 161 1 3 16 15 70.1 66.9 30.45 1.81 2.1 547 0.00 0.00 0.00 0.000
11/25/2014 10:07:22a 161 1 3 16 16 70.1 67.0 30.44 1.81 2.1 547 0.00 0.00 0.00 0.000
11/25/2014 10:08:22a 161 2 3 16 16 70.1 67.1 30.44 1.81 2.1 548 0.00 0.00 0.00 0.000
11/25/2014 10:09:25a 161 1 4 16 15 70.3 67.2 30.44 1.81 2.1 552 0.00 0.00 0.00 0.000
11/25/2014 10:10:28a 161 2 4 16 16 70.3 67.3 30.44 1.81 2.1 554 0.00 0.00 0.00 0.000
11/25/2014 10:11:28a 161 3 4 16 15 70.5 67.3 30.44 1.81 2.1 554 0.00 0.00 0.00 0.000
11/25/2014 10:12:28a 165 2 4 16 16 70.5 67.4 30.44 1.81 2.1 555 0.00 0.00 0.00 0.000
11/25/2014 10:13:28a 166 1 4 16 15 70.5 67.5 30.44 1.81 2.2 557 0.00 0.00 0.00 0.000
11/25/2014 10:14:28a 165 0 4 16 14 70.5 67.6 30.44 1.81 2.2 559 0.00 0.00 0.00 0.000
11/25/2014 10:15:28a 167 3 4 16 15 70.6 67.7 30.44 1.81 2.2 561 0.00 0.00 0.00 0.000
11/25/2014 10:16:29a 167 3 4 16 15 70.6 67.8 30.44 1.81 2.2 563 0.00 0.00 0.00 0.000
11/25/2014 10:17:29a 194 2 5 16 15 70.6 67.8 30.44 1.81 2.2 564 0.00 0.00 0.00 0.000
11/25/2014 10:18:29a 194 2 2 16 15 70.8 67.8 30.44 1.81 2.2 564 0.00 0.00 0.00 0.000
11/25/2014 10:19:29a 194 2 4 16 15 70.8 67.9 30.44 1.81 2.2 566 0.00 0.00 0.00 0.000
11/25/2014 10:20:29a 191 2 4 16 15 70.8 68.0 30.44 1.81 2.2 570 0.00 0.00 0.00 0.000
11/25/2014 10:21:29a 191 1 4 16 16 71.0 68.1 30.43 1.81 2.2 570 0.00 0.00 0.00 0.000
11/25/2014 10:22:29a 169 5 5 16 16 71.0 68.2 30.43 1.81 2.2 571 0.00 0.00 0.00 0.000
11/25/2014 10:23:35a 169 2 5 16 15 71.0 68.2 30.43 1.81 2.2 573 0.00 0.00 0.00 0.000
11/25/2014 10:24:35a 174 2 5 16 15 71.1 68.3 30.43 1.81 2.3 573 0.00 0.00 0.00 0.000
11/25/2014 10:25:35a 176 3 5 16 15 71.1 68.3 30.43 1.81 2.3 577 0.00 0.00 0.00 0.000
11/25/2014 10:26:35a 172 4 5 16 14 71.1 68.4 30.43 1.81 2.3 578 0.00 0.00 0.00 0.000
11/25/2014 10:27:35a 167 3 5 16 14 71.3 68.4 30.43 1.81 2.3 578 0.00 0.00 0.00 0.000
11/25/2014 10:28:35a 164 2 5 16 15 71.3 68.6 30.43 1.81 2.3 580 0.00 0.00 0.00 0.000
11/25/2014 10:29:36a 159 4 5 16 15 71.3 68.7 30.43 1.81 2.3 582 0.00 0.00 0.00 0.000
11/25/2014 10:30:36a 161 3 5 16 14 71.5 68.8 30.43 1.81 2.3 582 0.00 0.00 0.00 0.000
11/25/2014 10:31:36a 176 2 5 16 14 71.5 68.9 30.43 1.81 2.3 585 0.00 0.00 0.00 0.000
11/25/2014 10:32:36a 176 0 5 16 15 71.5 68.9 30.43 1.81 2.3 585 0.00 0.00 0.00 0.000
11/25/2014 10:33:36a 175 2 3 16 14 71.6 69.1 30.43 1.81 2.3 585 0.00 0.00 0.00 0.000
11/25/2014 10:34:36a 176 2 3 16 14 71.6 69.2 30.43 1.81 2.4 587 0.00 0.00 0.00 0.000
11/25/2014 10:35:36a 175 2 3 16 14 71.6 69.3 30.43 1.81 2.4 587 0.00 0.00 0.00 0.000
11/25/2014 10:36:36a 172 3 4 16 13 71.8 69.4 30.43 1.81 2.4 589 0.00 0.00 0.00 0.000
11/25/2014 10:37:36a 162 2 5 16 13 71.8 69.4 30.43 1.81 2.4 591 0.00 0.00 0.00 0.000
11/25/2014 10:38:36a 162 3 5 16 13 71.8 69.4 30.43 1.81 2.4 592 0.00 0.00 0.00 0.000
11/25/2014 10:39:36a 169 3 5 16 13 72.0 69.5 30.42 1.81 2.4 592 0.00 0.00 0.00 0.000
11/25/2014 10:40:37a 168 3 5 16 13 72.0 69.5 30.42 1.81 2.4 592 0.00 0.00 0.00 0.000
11/25/2014 10:41:37a 184 2 5 16 13 72.0 69.6 30.42 1.81 2.4 594 0.00 0.00 0.00 0.000
11/25/2014 10:42:37a 184 1 5 16 14 72.1 69.7 30.42 1.81 2.4 596 0.00 0.00 0.00 0.000
11/25/2014 10:43:37a 97 1 5 16 13 72.1 69.7 30.42 1.81 2.4 598 0.00 0.00 0.00 0.000
11/25/2014 10:44:37a 149 2 5 16 13 72.1 69.8 30.42 1.81 2.4 598 0.00 0.00 0.00 0.000
11/25/2014 10:45:37a 194 2 5 16 13 72.3 69.8 30.42 1.81 2.5 599 0.00 0.00 0.00 0.000
11/25/2014 10:46:37a 175 0 5 16 14 72.3 70.0 30.42 1.81 2.5 599 0.00 0.00 0.00 0.000
11/25/2014 10:47:37a 153 4 5 16 14 72.3 70.1 30.42 1.81 2.5 599 0.00 0.00 0.00 0.000
11/25/2014 10:48:37a 171 3 4 16 15 72.5 70.2 30.41 1.81 2.5 603 0.00 0.00 0.00 0.000
11/25/2014 10:49:40a 165 2 4 16 14 72.5 70.2 30.42 1.81 2.5 603 0.00 0.00 0.00 0.000
11/25/2014 10:50:41a 169 4 5 16 14 72.5 70.2 30.41 1.81 2.5 605 0.00 0.00 0.00 0.000
11/25/2014 10:51:44a 166 2 5 16 14 72.7 70.2 30.41 1.81 2.5 605 0.00 0.00 0.00 0.000
11/25/2014 10:52:45a 156 4 5 16 14 72.7 70.2 30.41 1.81 2.5 606 0.00 0.00 0.00 0.000
11/25/2014 10:53:45a 153 0 5 16 13 72.7 70.2 30.41 1.81 2.5 608 0.00 0.00 0.00 0.000
11/25/2014 10:54:45a 118 2 5 16 14 72.8 70.2 30.41 1.81 2.5 610 0.00 0.00 0.00 0.000
11/25/2014 10:55:48a 118 0 5 16 14 72.8 70.3 30.41 1.81 2.5 608 0.00 0.00 0.00 0.000
11/25/2014 10:56:48a 123 1 5 16 14 72.8 70.4 30.41 1.81 2.5 610 0.00 0.00 0.00 0.000
11/25/2014 10:57:48a 123 0 5 16 14 73.0 70.5 30.41 1.81 2.5 612 0.00 0.00 0.00 0.000
11/25/2014 10:58:48a 71 3 5 16 14 73.0 70.6 30.41 1.81 2.5 612 0.00 0.00 0.00 0.000
11/25/2014 10:59:48a 86 3 6 16 13 73.0 70.6 30.41 1.81 2.5 613 0.00 0.00 0.00 0.000
11/25/2014 11:00:48a 88 0 6 16 13 73.2 70.6 30.41 1.81 2.6 615 0.00 0.00 0.00 0.000
11/25/2014 11:01:48a 148 3 6 16 14 73.2 70.6 30.41 1.81 2.6 615 0.00 0.00 0.00 0.000
11/25/2014 11:02:52a 187 4 6 16 14 73.2 70.7 30.41 1.81 2.6 615 0.00 0.00 0.00 0.000
11/25/2014 11:03:52a 161 2 5 16 14 73.3 70.7 30.41 1.81 2.6 617 0.00 0.00 0.00 0.000
11/25/2014 11:04:55a 170 3 5 16 14 73.3 70.7 30.41 1.81 2.6 617 0.00 0.00 0.00 0.000
11/25/2014 11:05:55a 176 1 5 16 14 73.3 70.6 30.41 1.81 2.6 617 0.00 0.00 0.00 0.000
11/25/2014 11:06:55a 190 5 6 16 13 73.5 70.6 30.41 1.81 2.6 619 0.00 0.00 0.00 0.000
11/25/2014 11:07:58a 187 0 6 16 14 73.5 70.6 30.40 1.81 2.6 619 0.00 0.00 0.00 0.000
11/25/2014 11:08:58a 182 3 6 16 14 73.5 70.6 30.40 1.81 2.6 621 0.00 0.00 0.00 0.000
11/25/2014 11:09:58a 183 5 6 16 14 73.7 70.7 30.40 1.81 2.6 621 0.00 0.00 0.00 0.000
11/25/2014 11:11:01a 168 3 6 16 13 73.7 70.7 30.40 1.81 2.6 621 0.00 0.00 0.00 0.000
11/25/2014 11:12:01a 168 2 6 16 13 73.7 70.7 30.40 1.81 2.6 621 0.00 0.00 0.00 0.000
11/25/2014 11:13:01a 168 3 6 16 14 73.7 70.6 30.40 1.81 2.6 621 0.00 0.00 0.00 0.000
11/25/2014 11:14:01a 168 2 6 16 14 73.9 70.7 30.40 1.81 2.6 622 0.00 0.00 0.00 0.000
11/25/2014 11:15:08a 132 2 6 16 14 73.9 70.9 30.40 1.81 2.6 622 0.00 0.00 0.00 0.000
11/25/2014 11:16:08a 163 2 6 16 13 73.9 71.0 30.40 1.81 2.6 622 0.00 0.00 0.00 0.000
11/25/2014 11:17:11a 182 2 6 16 14 73.9 71.0 30.39 1.81 2.6 624 0.00 0.00 0.00 0.000
11/25/2014 11:18:11a 182 2 6 16 13 74.0 70.9 30.39 1.81 2.6 624 0.00 0.00 0.00 0.000
11/25/2014 11:19:11a 182 3 4 16 14 74.0 71.0 30.39 1.81 2.6 624 0.00 0.00 0.00 0.000
11/25/2014 11:20:14a 165 3 5 16 13 74.0 71.1 30.39 1.81 2.6 624 0.00 0.00 0.00 0.000
11/25/2014 11:21:14a 171 2 5 16 13 74.2 71.1 30.39 1.81 2.6 626 0.00 0.00 0.00 0.000
11/25/2014 11:22:14a 159 3 5 16 13 74.2 71.1 30.39 1.81 2.7 626 0.00 0.00 0.00 0.000
11/25/2014 11:23:17a 160 2 5 16 13 74.2 71.1 30.39 1.81 2.7 626 0.00 0.00 0.00 0.000
11/25/2014 11:24:17a 155 1 5 16 13 74.2 71.2 30.39 1.81 2.7 628 0.00 0.00 0.00 0.000
11/25/2014 11:25:18a 198 5 5 16 13 74.4 71.3 30.39 1.81 2.7 628 0.00 0.00 0.00 0.000
11/25/2014 11:26:18a 182 4 5 16 13 74.4 71.3 30.39 1.81 2.7 628 0.00 0.00 0.00 0.000
11/25/2014 11:27:21a 184 5 5 16 13 74.4 71.3 30.39 1.81 2.7 628 0.00 0.00 0.00 0.000
11/25/2014 11:28:21a 179 5 6 16 13 74.5 71.3 30.39 1.81 2.7 629 0.00 0.00 0.00 0.000
11/25/2014 11:29:21a 180 3 6 16 13 74.5 71.3 30.39 1.81 2.7 628 0.00 0.00 0.00 0.000
11/25/2014 11:30:21a 178 2 6 16 13 74.5 71.3 30.39 1.81 2.7 629 0.00 0.00 0.00 0.000
11/25/2014 11:31:24a 177 3 6 16 13 74.5 71.3 30.39 1.81 2.7 629 0.00 0.00 0.00 0.000
11/25/2014 11:32:24a 171 4 6 16 12 74.7 71.3 30.38 1.81 2.7 629 0.00 0.00 0.00 0.000
11/25/2014 11:33:24a 161 1 6 16 12 74.7 71.3 30.38 1.81 2.7 629 0.00 0.00 0.00 0.000
11/25/2014 11:34:30a 162 2 3 16 13 74.7 71.4 30.38 1.81 2.7 628 0.00 0.00 0.00 0.000
11/25/2014 11:36:31a 162 0 4 16 13 74.9 71.5 30.38 1.81 2.7 629 0.00 0.00 0.00 0.000
11/25/2014 11:37:31a 161 1 4 16 13 74.9 71.6 30.38 1.81 2.7 629 0.00 0.00 0.00 0.000
11/25/2014 11:38:37a 167 4 4 16 14 74.9 71.8 30.38 1.81 2.7 629 0.00 0.00 0.00 0.000
11/25/2014 11:39:37a 172 2 4 16 13 75.1 71.9 30.38 1.81 2.7 631 0.00 0.00 0.00 0.000
11/25/2014 11:40:37a 172 1 4 16 12 75.1 72.0 30.37 1.81 2.7 631 0.00 0.00 0.00 0.000
11/25/2014 11:41:40a 172 2 4 16 13 75.1 72.0 30.37 1.81 2.7 633 0.00 0.00 0.00 0.000
11/25/2014 11:42:43a 167 2 5 16 13 75.1 72.1 30.37 1.81 2.7 631 0.00 0.00 0.00 0.000
11/25/2014 11:43:43a 167 4 5 16 13 75.2 72.2 30.37 1.81 2.7 631 0.00 0.00 0.00 0.000
11/25/2014 11:44:46a 165 3 5 16 12 75.2 72.3 30.37 1.81 2.7 631 0.00 0.00 0.00 0.000
11/25/2014 11:45:46a 171 1 5 16 12 75.2 72.3 30.37 1.81 2.7 631 0.00 0.00 0.00 0.000
11/25/2014 11:46:49a 168 2 5 16 14 75.2 72.4 30.37 1.81 2.7 631 0.00 0.00 0.00 0.000
11/25/2014 11:47:49a 165 1 5 16 13 75.4 72.4 30.37 1.81 2.7 631 0.00 0.00 0.00 0.000
11/25/2014 11:48:50a 169 4 5 16 13 75.4 72.5 30.37 1.81 2.7 631 0.00 0.00 0.00 0.000
11/25/2014 11:49:50a 160 4 5 16 12 75.4 72.6 30.37 1.81 2.7 631 0.00 0.00 0.00 0.000
11/25/2014 11:50:50a 154 3 5 16 12 75.4 72.5 30.37 1.81 2.7 629 0.00 0.00 0.00 0.000
11/25/2014 11:51:50a 160 4 5 16 12 75.6 72.5 30.37 1.81 2.7 629 0.00 0.00 0.00 0.000
11/25/2014 11:52:50a 165 3 5 16 12 75.6 72.6 30.37 1.81 2.7 631 0.00 0.00 0.00 0.000
11/25/2014 11:53:50a 167 3 5 16 12 75.6 72.7 30.37 1.81 2.6 629 0.00 0.00 0.00 0.000
11/25/2014 11:54:50a 166 3 5 16 12 75.6 72.7 30.36 1.81 2.6 629 0.00 0.00 0.00 0.000
11/25/2014 11:55:50a 176 3 5 16 13 75.8 72.7 30.36 1.81 2.6 628 0.00 0.00 0.00 0.000
11/25/2014 11:56:50a 165 1 5 16 11 75.8 72.7 30.36 1.81 2.6 628 0.00 0.00 0.00 0.000
11/25/2014 11:57:50a 165 1 5 16 11 75.8 72.5 30.36 1.81 2.6 629 0.00 0.00 0.00 0.000
11/25/2014 11:58:50a 165 4 5 16 12 75.8 72.6 30.36 1.81 2.6 628 0.00 0.00 0.00 0.000
11/25/2014 11:59:50a 164 3 5 16 12 75.9 72.6 30.36 1.81 2.6 629 0.00 0.00 0.00 0.000
11/25/2014 12:00:51p 169 1 5 16 12 75.9 72.7 30.36 1.81 2.6 629 0.00 0.00 0.00 0.000
11/25/2014 12:01:51p 170 0 5 16 12 75.9 72.6 30.36 1.81 2.6 629 0.00 0.00 0.00 0.000
11/25/2014 12:02:51p 63 3 5 16 12 75.9 72.6 30.36 1.81 2.6 628 0.00 0.00 0.00 0.000
11/25/2014 12:03:51p 164 3 4 16 11 76.1 72.7 30.36 1.81 2.6 626 0.00 0.00 0.00 0.000
11/25/2014 12:04:51p 180 3 4 16 12 76.1 72.7 30.36 1.81 2.6 628 0.00 0.00 0.00 0.000
11/25/2014 12:05:54p 180 4 5 16 12 76.1 72.8 30.36 1.81 2.6 628 0.00 0.00 0.00 0.000
11/25/2014 12:06:57p 165 3 5 16 12 76.1 72.8 30.36 1.81 2.6 628 0.00 0.00 0.00 0.000
11/25/2014 12:07:57p 167 3 5 16 11 76.3 72.9 30.36 1.81 2.6 626 0.00 0.00 0.00 0.000
11/25/2014 12:08:57p 138 2 5 16 11 76.3 72.8 30.36 1.81 2.6 624 0.00 0.00 0.00 0.000
11/25/2014 12:10:00p 128 0 5 16 11 76.3 72.9 30.36 1.81 2.6 624 0.00 0.00 0.00 0.000
11/25/2014 12:11:03p 128 1 5 17 12 76.3 72.9 30.36 1.81 2.6 622 0.00 0.00 0.00 0.000
11/25/2014 12:12:03p 118 3 5 17 11 76.5 73.0 30.36 1.81 2.6 622 0.00 0.00 0.00 0.000
11/25/2014 12:13:03p 113 0 5 17 11 76.5 73.1 30.36 1.81 2.6 621 0.00 0.00 0.00 0.000
11/25/2014 12:14:03p 134 0 5 17 11 76.5 73.3 30.36 1.81 2.6 622 0.00 0.00 0.00 0.000
11/25/2014 12:15:03p 103 1 5 17 11 76.5 73.3 30.36 1.81 2.6 622 0.00 0.00 0.00 0.000
11/25/2014 12:16:04p 169 4 5 17 11 76.5 73.3 30.35 1.81 2.6 619 0.00 0.00 0.00 0.000
11/25/2014 12:17:04p 186 3 5 17 11 76.6 73.2 30.36 1.81 2.5 619 0.00 0.00 0.00 0.000
11/25/2014 12:18:04p 186 1 5 17 11 76.6 73.2 30.36 1.81 2.5 619 0.00 0.00 0.00 0.000
11/25/2014 12:19:04p 190 5 5 17 12 76.6 73.1 30.36 1.81 2.5 621 0.00 0.00 0.00 0.000
11/25/2014 12:20:07p 160 5 5 17 11 76.6 73.2 30.35 1.81 2.5 619 0.00 0.00 0.00 0.000
11/25/2014 12:21:07p 157 3 6 17 11 76.8 73.1 30.36 1.81 2.5 619 0.00 0.00 0.00 0.000
11/25/2014 12:22:07p 164 1 6 18 11 76.8 73.0 30.36 1.81 2.5 619 0.00 0.00 0.00 0.000
11/25/2014 12:23:07p 164 2 6 18 11 76.8 73.0 30.35 1.81 2.5 617 0.00 0.00 0.00 0.000
11/25/2014 12:24:07p 155 4 6 18 11 76.8 73.0 30.35 1.81 2.5 615 0.00 0.00 0.00 0.000
11/25/2014 12:25:07p 167 2 6 18 12 76.8 73.0 30.35 1.81 2.5 617 0.00 0.00 0.00 0.000
11/25/2014 12:26:07p 167 0 6 18 11 77.0 73.1 30.35 1.81 2.5 613 0.00 0.00 0.00 0.000
11/25/2014 12:27:08p 150 0 6 18 11 77.0 73.2 30.35 1.81 2.5 613 0.00 0.00 0.00 0.000
11/25/2014 12:28:08p 153 2 6 18 11 77.0 73.4 30.35 1.81 2.5 612 0.00 0.00 0.00 0.000
11/25/2014 12:29:08p 184 4 6 18 12 77.0 73.5 30.35 1.81 2.5 613 0.00 0.00 0.00 0.000
11/25/2014 12:30:08p 174 3 6 18 11 77.0 73.6 30.35 1.81 2.5 612 0.00 0.00 0.00 0.000
11/25/2014 12:31:14p 177 3 6 18 11 77.2 73.5 30.35 1.81 2.4 612 0.00 0.00 0.00 0.000
11/25/2014 12:32:14p 176 1 6 18 11 77.2 73.5 30.35 1.81 2.4 610 0.00 0.00 0.00 0.000
11/25/2014 12:33:17p 94 2 6 18 12 77.2 73.5 30.35 1.81 2.4 608 0.00 0.00 0.00 0.000
11/25/2014 12:34:17p 95 1 2 18 11 77.2 73.6 30.35 1.81 2.4 610 0.00 0.00 0.00 0.000
11/25/2014 12:35:17p 96 1 2 18 11 77.3 73.5 30.34 1.81 2.4 606 0.00 0.00 0.00 0.000
11/25/2014 12:36:17p 164 2 6 18 11 77.3 73.5 30.34 1.81 2.4 606 0.00 0.00 0.00 0.000
11/25/2014 12:37:17p 78 0 6 18 11 77.3 73.6 30.34 1.81 2.4 608 0.00 0.00 0.00 0.000
11/25/2014 12:38:17p 113 0 6 18 11 77.3 73.7 30.34 1.81 2.4 605 0.00 0.00 0.00 0.000
11/25/2014 12:39:17p 118 0 6 18 11 77.3 73.8 30.34 1.81 2.4 605 0.00 0.00 0.00 0.000
11/25/2014 12:40:18p 132 0 6 18 11 77.3 73.9 30.34 1.81 2.4 603 0.00 0.00 0.00 0.000
11/25/2014 12:41:18p 165 4 6 19 11 77.5 74.0 30.34 1.81 2.4 603 0.00 0.00 0.00 0.000
11/25/2014 12:42:18p 164 0 6 19 11 77.5 73.9 30.34 1.81 2.3 601 0.00 0.00 0.00 0.000
11/25/2014 12:43:18p 165 2 6 19 11 77.5 73.9 30.34 1.81 2.3 599 0.00 0.00 0.00 0.000
11/25/2014 12:44:18p 178 5 6 19 11 77.5 74.0 30.34 1.81 2.3 599 0.00 0.00 0.00 0.000
11/25/2014 12:45:18p 156 3 6 19 11 77.5 74.0 30.34 1.81 2.3 598 0.00 0.00 0.00 0.000
11/25/2014 12:46:18p 165 5 6 19 11 77.7 74.0 30.34 1.81 2.3 598 0.00 0.00 0.00 0.000
11/25/2014 12:47:21p 174 3 6 19 11 77.7 73.9 30.34 1.81 2.3 594 0.00 0.00 0.00 0.000
11/25/2014 12:48:22p 178 2 6 19 11 77.7 73.9 30.34 1.81 2.3 594 0.00 0.00 0.00 0.000
11/25/2014 12:49:22p 159 3 4 19 11 77.7 73.9 30.34 1.81 2.3 591 0.00 0.00 0.00 0.000
11/25/2014 12:50:22p 152 5 6 19 11 77.7 74.0 30.33 1.81 2.3 591 0.00 0.00 0.00 0.000
11/25/2014 12:51:22p 153 1 6 19 10 77.7 74.0 30.33 1.81 2.3 591 0.00 0.00 0.00 0.000
11/25/2014 12:52:25p 153 0 6 19 10 77.9 73.9 30.33 1.81 2.2 589 0.00 0.00 0.00 0.000
11/25/2014 12:53:28p 153 0 6 19 11 77.9 74.0 30.33 1.81 2.2 587 0.00 0.00 0.00 0.000
11/25/2014 12:54:31p 153 1 6 19 11 77.9 74.1 30.33 1.81 2.2 585 0.00 0.00 0.00 0.000
11/25/2014 12:55:31p 169 3 6 19 11 77.9 74.2 30.33 1.81 2.2 585 0.00 0.00 0.00 0.000
11/25/2014 12:56:34p 167 3 6 20 11 78.1 74.4 30.33 1.81 2.2 584 0.00 0.00 0.00 0.000
11/25/2014 12:57:34p 172 5 6 20 11 78.1 74.3 30.33 1.81 2.2 582 0.00 0.00 0.00 0.000
11/25/2014 12:58:34p 155 5 6 20 11 78.1 74.3 30.33 1.81 2.2 582 0.00 0.00 0.00 0.000
11/25/2014 12:59:34p 178 4 6 20 11 78.1 74.3 30.33 1.81 2.2 580 0.00 0.00 0.00 0.000
11/25/2014 1:00:34p 168 4 6 20 11 78.1 74.2 30.33 1.81 2.2 580 0.00 0.00 0.00 0.000
11/25/2014 1:01:34p 189 5 6 20 11 78.1 74.2 30.33 1.81 2.2 578 0.00 0.00 0.00 0.000
11/25/2014 1:02:35p 179 3 6 20 11 78.2 74.1 30.33 1.81 2.2 577 0.00 0.00 0.00 0.000
11/25/2014 1:03:35p 179 3 3 20 11 78.2 74.1 30.34 1.81 2.2 577 0.00 0.00 0.00 0.000
11/25/2014 1:04:35p 155 3 4 20 11 78.2 74.1 30.34 1.81 2.1 573 0.00 0.00 0.00 0.000
11/25/2014 1:05:35p 161 2 5 20 10 78.2 74.1 30.34 1.81 2.1 573 0.00 0.00 0.00 0.000
11/25/2014 1:06:35p 148 2 5 20 11 78.2 74.2 30.34 1.81 2.1 571 0.00 0.00 0.00 0.000
11/25/2014 1:07:38p 179 2 5 20 11 78.4 74.3 30.34 1.81 2.1 571 0.00 0.00 0.00 0.000
11/25/2014 1:08:38p 178 0 5 20 11 78.4 74.4 30.34 1.81 2.1 568 0.00 0.00 0.00 0.000
11/25/2014 1:09:38p 178 0 5 20 11 78.4 74.5 30.34 1.81 2.1 566 0.00 0.00 0.00 0.000
11/25/2014 1:10:38p 180 3 5 20 11 78.4 74.6 30.34 1.81 2.1 564 0.00 0.00 0.00 0.000
11/25/2014 1:11:44p 182 0 5 20 11 78.4 74.6 30.33 1.81 2.0 564 0.00 0.00 0.00 0.000
11/25/2014 1:12:44p 203 4 5 20 11 78.4 74.7 30.33 1.81 2.0 563 0.00 0.00 0.00 0.000
11/25/2014 1:13:44p 163 5 5 20 11 78.4 74.7 30.33 1.81 2.0 561 0.00 0.00 0.00 0.000
11/25/2014 1:14:47p 163 3 5 20 11 78.6 74.8 30.34 1.81 2.0 559 0.00 0.00 0.00 0.000
11/25/2014 1:15:47p 158 4 6 20 10 78.6 74.7 30.34 1.81 2.0 555 0.00 0.00 0.00 0.000
11/25/2014 1:16:51p 171 3 6 20 10 78.6 74.7 30.34 1.81 2.0 554 0.00 0.00 0.00 0.000
11/25/2014 1:17:51p 194 4 6 20 11 78.6 74.5 30.33 1.81 2.0 552 0.00 0.00 0.00 0.000
11/25/2014 1:18:51p 202 2 4 20 11 78.6 74.5 30.33 1.81 2.0 552 0.00 0.00 0.00 0.000
11/25/2014 1:19:51p 202 4 4 21 11 78.6 74.5 30.33 1.81 1.9 550 0.00 0.00 0.00 0.000
11/25/2014 1:20:51p 202 2 4 21 10 78.8 74.5 30.33 1.81 1.9 548 0.00 0.00 0.00 0.000
11/25/2014 1:21:51p 167 3 6 21 11 78.8 74.5 30.33 1.81 1.9 547 0.00 0.00 0.00 0.000
11/25/2014 1:22:51p 150 4 6 21 10 78.8 74.6 30.33 1.81 1.9 548 0.00 0.00 0.00 0.000
11/25/2014 1:23:51p 184 4 6 21 11 78.8 74.7 30.33 1.81 1.9 548 0.00 0.00 0.00 0.000
11/25/2014 1:24:51p 184 0 6 21 11 78.8 74.8 30.33 1.81 1.9 541 0.00 0.00 0.00 0.000
11/25/2014 1:25:51p 184 0 6 21 10 78.8 74.8 30.33 1.81 1.9 538 0.00 0.00 0.00 0.000
11/25/2014 1:26:51p 179 3 6 21 10 78.8 74.9 30.33 1.81 1.8 536 0.00 0.00 0.00 0.000
11/25/2014 1:27:51p 165 1 6 21 10 78.8 74.9 30.33 1.81 1.8 534 0.00 0.00 0.00 0.000
11/25/2014 1:28:57p 166 2 6 21 10 78.9 75.0 30.33 1.81 1.8 533 0.00 0.00 0.00 0.000
11/25/2014 1:29:57p 163 1 6 21 10 78.9 75.0 30.33 1.81 1.8 531 0.00 0.00 0.00 0.000
11/25/2014 1:30:58p 163 1 6 21 10 78.9 75.1 30.33 1.81 1.8 527 0.00 0.00 0.00 0.000
11/25/2014 1:32:01p 165 2 6 21 10 78.9 75.2 30.33 1.81 1.8 527 0.00 0.00 0.00 0.000
11/25/2014 1:33:01p 154 2 6 21 11 78.9 75.3 30.33 1.81 1.8 524 0.00 0.00 0.00 0.000
11/25/2014 1:34:01p 142 4 4 21 10 78.9 75.4 30.33 1.81 1.7 524 0.00 0.00 0.00 0.000
11/25/2014 1:35:01p 118 1 4 21 10 78.9 75.4 30.33 1.81 1.7 524 0.00 0.00 0.00 0.000
11/25/2014 1:36:01p 118 1 4 21 10 79.1 75.3 30.33 1.81 1.7 520 0.00 0.00 0.00 0.000
11/25/2014 1:37:01p 113 0 4 21 10 79.1 75.3 30.33 1.81 1.7 517 0.00 0.00 0.00 0.000
11/25/2014 1:38:02p 165 2 4 21 10 79.1 75.4 30.33 1.81 1.7 517 0.00 0.00 0.00 0.000
11/25/2014 1:39:02p 169 4 4 21 11 79.1 75.5 30.33 1.81 1.7 513 0.00 0.00 0.00 0.000
11/25/2014 1:40:02p 176 4 5 21 10 79.1 75.4 30.33 1.81 1.7 512 0.00 0.00 0.00 0.000
11/25/2014 1:41:02p 176 1 5 21 10 79.1 75.3 30.33 1.81 1.6 510 0.00 0.00 0.00 0.000
11/25/2014 1:42:02p 174 3 5 21 11 79.1 75.4 30.33 1.81 1.6 506 0.00 0.00 0.00 0.000
11/25/2014 1:43:02p 174 3 5 21 11 79.3 75.4 30.33 1.81 1.6 504 0.00 0.00 0.00 0.000
11/25/2014 1:44:02p 180 4 5 21 11 79.3 75.4 30.33 1.81 1.6 501 0.00 0.00 0.00 0.000
11/25/2014 1:45:02p 175 5 5 21 10 79.3 75.4 30.33 1.81 1.6 501 0.00 0.00 0.00 0.000
11/25/2014 1:46:02p 169 3 6 21 10 79.3 75.4 30.33 1.81 1.6 499 0.00 0.00 0.00 0.000
11/25/2014 1:47:02p 170 1 6 21 10 79.3 75.3 30.33 1.81 1.6 499 0.00 0.00 0.00 0.000
11/25/2014 1:48:02p 170 0 6 21 10 79.3 75.4 30.33 1.81 1.6 494 0.00 0.00 0.00 0.000
11/25/2014 1:49:03p 169 0 1 21 10 79.3 75.5 30.33 1.81 1.5 492 0.00 0.00 0.00 0.000
11/25/2014 1:50:03p 170 0 1 21 10 79.3 75.5 30.33 1.81 1.5 490 0.00 0.00 0.00 0.000
11/25/2014 1:51:03p 169 0 1 21 10 79.3 75.5 30.33 1.81 1.5 487 0.00 0.00 0.00 0.000
11/25/2014 1:52:03p 168 2 3 21 11 79.5 75.5 30.33 1.81 1.5 485 0.00 0.00 0.00 0.000
11/25/2014 1:53:03p 169 1 4 21 10 79.5 75.6 30.33 1.81 1.5 483 0.00 0.00 0.00 0.000
11/25/2014 1:54:06p 162 2 4 21 10 79.5 75.6 30.32 1.81 1.5 480 0.00 0.00 0.00 0.000
11/25/2014 1:55:06p 162 2 4 21 10 79.5 75.6 30.32 1.81 1.4 478 0.00 0.00 0.00 0.000
11/25/2014 1:56:09p 163 0 4 21 10 79.5 75.6 30.33 1.81 1.4 476 0.00 0.00 0.00 0.000
11/25/2014 1:57:09p 163 0 4 21 10 79.5 75.6 30.32 1.81 1.4 475 0.00 0.00 0.00 0.000
11/25/2014 1:58:09p 163 0 4 21 10 79.5 75.6 30.32 1.81 1.4 471 0.00 0.00 0.00 0.000
11/25/2014 1:59:09p 162 1 4 21 10 79.5 75.7 30.32 1.81 1.4 468 0.00 0.00 0.00 0.000
11/25/2014 2:00:09p 162 1 4 21 10 79.7 75.8 30.32 1.81 1.4 468 0.00 0.00 0.00 0.000
11/25/2014 2:01:09p 167 3 4 21 10 79.7 75.9 30.33 1.81 1.4 466 0.00 0.00 0.00 0.000
11/25/2014 2:02:13p 171 3 5 21 10 79.7 75.8 30.32 1.81 1.3 462 0.00 0.00 0.00 0.000
11/25/2014 2:03:13p 171 1 5 21 10 79.7 75.8 30.32 1.81 1.3 461 0.00 0.00 0.00 0.000
11/25/2014 2:04:13p 171 2 2 21 10 79.7 75.7 30.33 1.81 1.3 459 0.00 0.00 0.00 0.000
11/25/2014 2:05:13p 171 1 3 21 10 79.7 75.7 30.33 1.81 1.3 455 0.00 0.00 0.00 0.000
11/25/2014 2:06:13p 171 1 3 21 10 79.7 75.6 30.33 1.81 1.3 452 0.00 0.00 0.00 0.000
11/25/2014 2:07:13p 171 0 3 21 10 79.7 75.6 30.32 1.81 1.3 452 0.00 0.00 0.00 0.000
11/25/2014 2:08:13p 171 0 3 21 10 79.7 75.7 30.32 1.81 1.3 448 0.00 0.00 0.00 0.000
11/25/2014 2:09:13p 171 2 3 21 11 79.7 75.8 30.33 1.81 1.3 446 0.00 0.00 0.00 0.000
11/25/2014 2:10:13p 226 4 4 21 11 79.9 75.9 30.32 1.81 1.3 441 0.00 0.00 0.00 0.000
11/25/2014 2:11:16p 226 2 4 21 10 79.9 76.0 30.32 1.81 1.2 439 0.00 0.00 0.00 0.000
11/25/2014 2:12:19p 226 2 4 21 11 79.9 76.0 30.32 1.81 1.2 438 0.00 0.00 0.00 0.000
11/25/2014 2:13:19p 226 0 4 21 10 79.9 76.0 30.32 1.81 1.2 436 0.00 0.00 0.00 0.000
11/25/2014 2:14:19p 226 1 4 21 10 79.9 76.0 30.32 1.81 1.2 434 0.00 0.00 0.00 0.000
11/25/2014 2:15:20p 226 1 4 21 10 79.9 76.1 30.32 1.81 1.2 431 0.00 0.00 0.00 0.000
11/25/2014 2:16:20p 226 0 4 21 10 79.9 76.1 30.32 1.81 1.2 429 0.00 0.00 0.00 0.000
11/25/2014 2:17:20p 226 0 4 21 11 79.9 76.2 30.32 1.81 1.1 425 0.00 0.00 0.00 0.000
11/25/2014 2:18:20p 226 1 4 21 11 79.9 76.3 30.32 1.81 1.1 424 0.00 0.00 0.00 0.000
11/25/2014 2:19:20p 226 0 1 21 10 79.9 76.2 30.32 1.81 1.1 422 0.00 0.00 0.00 0.000
11/25/2014 2:20:20p 226 0 1 21 10 79.9 76.3 30.32 1.81 1.1 420 0.00 0.00 0.00 0.000
11/25/2014 2:21:20p 214 1 3 21 10 80.1 76.3 30.32 1.81 1.1 417 0.00 0.00 0.00 0.000
11/25/2014 2:22:20p 214 2 3 21 10 80.1 76.3 30.32 1.81 1.1 413 0.00 0.00 0.00 0.000
11/25/2014 2:23:20p 213 0 3 21 10 80.1 76.3 30.32 1.81 1.1 411 0.00 0.00 0.00 0.000
11/25/2014 2:24:23p 214 2 4 21 11 80.1 76.3 30.32 1.81 1.1 410 0.00 0.00 0.00 0.000
11/25/2014 2:25:23p 214 1 4 21 11 80.1 76.3 30.32 1.81 1.0 408 0.00 0.00 0.00 0.000
11/25/2014 2:26:23p 214 2 4 21 10 80.1 76.2 30.32 1.81 1.0 403 0.00 0.00 0.00 0.000
11/25/2014 2:27:23p 214 2 4 21 10 80.1 76.2 30.32 1.81 1.0 399 0.00 0.00 0.00 0.000
11/25/2014 2:28:23p 214 2 4 21 10 80.1 76.1 30.32 1.81 1.0 397 0.00 0.00 0.00 0.000
11/25/2014 2:29:23p 214 2 4 21 10 80.1 76.1 30.32 1.81 1.0 397 0.00 0.00 0.00 0.000
11/25/2014 2:30:24p 206 4 4 21 10 80.1 76.1 30.32 1.81 1.0 396 0.00 0.00 0.00 0.000
11/25/2014 2:31:24p 206 1 4 21 10 80.1 76.0 30.32 1.81 1.0 392 0.00 0.00 0.00 0.000
11/25/2014 2:32:30p 206 0 4 21 10 80.1 76.0 30.32 1.81 1.0 387 0.00 0.00 0.00 0.000
11/25/2014 2:33:30p 206 2 2 21 11 80.1 76.0 30.32 1.81 0.9 387 0.00 0.00 0.00 0.000
11/25/2014 2:34:30p 206 2 3 21 10 80.1 76.0 30.32 1.81 0.9 383 0.00 0.00 0.00 0.000
11/25/2014 2:35:30p 206 1 3 21 11 80.1 76.0 30.32 1.81 0.9 380 0.00 0.00 0.00 0.000
11/25/2014 2:36:33p 206 0 3 21 11 80.2 76.0 30.32 1.81 0.9 378 0.00 0.00 0.00 0.000
11/25/2014 2:37:33p 206 0 3 21 11 80.2 76.0 30.32 1.81 0.9 373 0.00 0.00 0.00 0.000
11/25/2014 2:38:36p 206 1 3 21 11 80.2 76.0 30.32 1.81 0.9 371 0.00 0.00 0.00 0.000
11/25/2014 2:39:36p 172 3 3 21 12 80.2 76.1 30.32 1.81 0.9 367 0.00 0.00 0.00 0.000
11/25/2014 2:40:36p 180 2 4 21 11 80.2 76.1 30.32 1.81 0.8 366 0.00 0.00 0.00 0.000
11/25/2014 2:41:35p 180 2 4 21 11 80.2 76.1 30.32 1.81 0.8 364 0.00 0.00 0.00 0.000
11/25/2014 2:42:35p 180 2 4 22 10 80.2 76.0 30.32 1.81 0.8 362 0.00 0.00 0.00 0.000
11/25/2014 2:43:35p 180 1 4 22 10 80.2 76.0 30.32 1.81 0.8 357 0.00 0.00 0.00 0.000
11/25/2014 2:44:35p 180 1 4 22 10 80.2 75.9 30.32 1.81 0.8 355 0.00 0.00 0.00 0.000
11/25/2014 2:45:35p 180 2 4 22 11 80.2 75.9 30.32 1.81 0.8 353 0.00 0.00 0.00 0.000
11/25/2014 2:46:35p 180 0 4 22 10 80.2 76.0 30.32 1.81 0.8 350 0.00 0.00 0.00 0.000
11/25/2014 2:47:35p 180 0 4 22 10 80.2 76.2 30.32 1.81 0.8 346 0.00 0.00 0.00 0.000
11/25/2014 2:48:35p 180 0 0 22 10 80.2 76.4 30.32 1.81 0.8 345 0.00 0.00 0.00 0.000
11/25/2014 2:49:35p 180 0 0 22 11 80.2 76.4 30.32 1.81 0.8 339 0.00 0.00 0.00 0.000
11/25/2014 2:50:39p 180 0 0 22 11 80.2 76.4 30.32 1.81 0.7 338 0.00 0.00 0.00 0.000
11/25/2014 2:51:39p 180 1 1 22 11 80.2 76.4 30.32 1.81 0.7 334 0.00 0.00 0.00 0.000
11/25/2014 2:52:39p 180 0 1 22 11 80.2 76.4 30.32 1.81 0.7 332 0.00 0.00 0.00 0.000
11/25/2014 2:53:39p 180 0 1 22 11 80.4 76.4 30.32 1.81 0.7 330 0.00 0.00 0.00 0.000
11/25/2014 2:54:39p 180 0 1 22 10 80.4 76.3 30.32 1.81 0.7 325 0.00 0.00 0.00 0.000
11/25/2014 2:55:39p 174 3 3 22 11 80.4 76.3 30.32 1.81 0.7 323 0.00 0.00 0.00 0.000
11/25/2014 2:56:39p 155 4 4 22 11 80.4 76.2 30.32 1.81 0.7 320 0.00 0.00 0.00 0.000
11/25/2014 2:57:39p 145 3 4 22 10 80.4 76.1 30.32 1.81 0.6 318 0.00 0.00 0.00 0.000
11/25/2014 2:58:39p 165 4 5 22 10 80.4 76.0 30.32 1.81 0.6 315 0.00 0.00 0.00 0.000
11/25/2014 2:59:39p 166 0 5 22 11 80.4 76.0 30.32 1.81 0.6 313 0.00 0.00 0.00 0.000
11/25/2014 3:00:42p 166 0 5 22 11 80.4 76.0 30.32 1.81 0.6 308 0.00 0.00 0.00 0.000
11/25/2014 3:01:42p 164 2 5 22 11 80.4 76.0 30.32 1.81 0.6 306 0.00 0.00 0.00 0.000
11/25/2014 3:02:43p 151 1 5 22 11 80.4 76.0 30.32 1.81 0.6 302 0.00 0.00 0.00 0.000
11/25/2014 3:03:46p 153 2 3 22 11 80.4 76.0 30.31 1.81 0.6 301 0.00 0.00 0.00 0.000
11/25/2014 3:04:46p 159 2 4 22 11 80.4 76.0 30.31 1.81 0.6 297 0.00 0.00 0.00 0.000
11/25/2014 3:05:49p 169 2 4 22 11 80.4 76.0 30.31 1.81 0.6 294 0.00 0.00 0.00 0.000
11/25/2014 3:06:49p 169 1 4 22 11 80.4 76.0 30.31 1.81 0.6 290 0.00 0.00 0.00 0.000
11/25/2014 3:07:52p 169 1 4 22 11 80.4 76.0 30.31 1.81 0.5 290 0.00 0.00 0.00 0.000
11/25/2014 3:08:52p 169 2 4 22 11 80.4 76.0 30.31 1.81 0.5 287 0.00 0.00 0.00 0.000
11/25/2014 3:09:52p 168 0 4 22 11 80.4 76.0 30.31 1.81 0.5 283 0.00 0.00 0.00 0.000
11/25/2014 3:10:52p 168 1 4 22 11 80.4 76.0 30.31 1.81 0.5 276 0.00 0.00 0.00 0.000
11/25/2014 3:11:52p 168 1 4 22 11 80.4 76.0 30.31 1.81 0.5 274 0.00 0.00 0.00 0.000
11/25/2014 3:12:53p 168 1 4 22 11 80.4 75.9 30.31 1.81 0.5 272 0.00 0.00 0.00 0.000
11/25/2014 3:13:53p 168 2 4 22 11 80.4 75.9 30.31 1.81 0.5 269 0.00 0.00 0.00 0.000
11/25/2014 3:14:53p 169 1 4 22 11 80.4 75.8 30.31 1.81 0.5 267 0.00 0.00 0.00 0.000
11/25/2014 3:15:53p 179 3 4 22 11 80.4 75.8 30.31 1.81 0.5 265 0.00 0.00 0.00 0.000
11/25/2014 3:16:53p 172 4 4 22 11 80.4 75.8 30.31 1.81 0.5 258 0.00 0.00 0.00 0.000
11/25/2014 3:17:56p 172 0 4 22 11 80.4 75.7 30.31 1.81 0.5 257 0.00 0.00 0.00 0.000
11/25/2014 3:18:56p 171 2 3 22 11 80.4 75.7 30.31 1.81 0.0 253 0.00 0.00 0.00 0.000
11/25/2014 3:19:56p 170 1 4 23 11 80.4 75.7 30.31 1.81 0.0 250 0.00 0.00 0.00 0.000
11/25/2014 3:20:56p 151 2 4 23 11 80.4 75.7 30.31 1.81 0.0 248 0.00 0.00 0.00 0.000
11/25/2014 3:21:56p 151 3 4 23 11 80.4 75.7 30.31 1.81 0.0 243 0.00 0.00 0.00 0.000
11/25/2014 3:22:56p 149 0 4 23 11 80.4 75.7 30.31 1.81 0.0 239 0.00 0.00 0.00 0.000
11/25/2014 3:23:56p 149 1 4 23 11 80.6 75.7 30.31 1.81 0.0 237 0.00 0.00 0.00 0.000
11/25/2014 3:24:57p 149 0 4 23 11 80.6 75.7 30.31 1.81 0.0 234 0.00 0.00 0.00 0.000
11/25/2014 3:26:00p 149 0 4 23 11 80.6 75.6 30.31 1.81 0.0 232 0.00 0.00 0.00 0.000
11/25/2014 3:27:00p 149 0 4 23 11 80.6 75.7 30.31 1.81 0.0 230 0.00 0.00 0.00 0.000
11/25/2014 3:28:03p 149 0 4 23 11 80.6 75.6 30.31 1.81 0.0 225 0.00 0.00 0.00 0.000
11/25/2014 3:29:03p 149 0 4 23 12 80.6 75.6 30.31 1.81 0.0 221 0.00 0.00 0.00 0.000
11/25/2014 3:30:03p 149 0 4 23 11 80.6 75.6 30.31 1.81 0.0 197 0.00 0.00 0.00 0.000
11/25/2014 3:31:03p 149 0 4 23 11 80.6 75.6 30.31 1.81 0.0 192 0.00 0.00 0.00 0.000
11/25/2014 3:32:03p 149 0 4 23 11 80.6 75.5 30.31 1.81 0.0 197 0.00 0.00 0.00 0.000
11/25/2014 3:33:03p 149 2 4 23 11 80.6 75.5 30.31 1.81 0.0 146 0.00 0.00 0.00 0.000
11/25/2014 3:34:03p 84 1 2 23 11 80.6 75.4 30.31 1.81 0.0 135 0.00 0.00 0.00 0.000
11/25/2014 3:35:04p 84 0 2 23 11 80.6 75.3 30.31 1.81 0.0 120 0.00 0.00 0.00 0.000
11/25/2014 3:36:04p 84 0 2 23 12 80.6 75.2 30.31 1.81 0.0 98 0.00 0.00 0.00 0.000
11/25/2014 3:37:04p 84 0 2 23 12 80.6 75.0 30.31 1.81 0.0 81 0.00 0.00 0.00 0.000
11/25/2014 3:38:13p 84 0 2 23 12 80.6 74.9 30.31 1.81 0.0 98 0.00 0.00 0.00 0.000
11/25/2014 3:39:13p 84 0 2 23 12 80.6 74.9 30.31 1.81 0.0 113 0.00 0.00 0.00 0.000
11/25/2014 3:40:13p 84 0 2 23 13 80.6 74.8 30.31 1.81 0.0 123 0.00 0.00 0.00 0.000
11/25/2014 3:41:16p 84 0 2 23 12 80.6 74.7 30.31 1.81 0.0 144 0.00 0.00 0.00 0.000
11/25/2014 3:42:16p 84 1 2 23 12 80.6 74.6 30.31 1.81 0.0 151 0.00 0.00 0.00 0.000
11/25/2014 3:43:17p 128 1 2 23 12 80.6 74.6 30.31 1.81 0.0 144 0.00 0.00 0.00 0.000
11/25/2014 3:44:20p 123 0 2 23 11 80.6 74.6 30.31 1.81 0.0 121 0.00 0.00 0.00 0.000
11/25/2014 3:45:20p 128 1 2 23 12 80.6 74.6 30.31 1.81 0.0 100 0.00 0.00 0.00 0.000
11/25/2014 3:46:20p 123 0 2 23 11 80.6 74.6 30.31 1.81 0.0 109 0.00 0.00 0.00 0.000
11/25/2014 3:47:23p 123 0 2 23 12 80.6 74.7 30.31 1.81 0.0 105 0.00 0.00 0.00 0.000
11/25/2014 3:48:23p 128 0 2 23 12 80.6 74.6 30.31 1.81 0.0 118 0.00 0.00 0.00 0.000
11/25/2014 3:49:23p 128 0 0 23 12 80.6 74.5 30.31 1.81 0.0 104 0.00 0.00 0.00 0.000
11/25/2014 3:50:23p 128 0 0 23 12 80.6 74.4 30.31 1.81 0.0 88 0.00 0.00 0.00 0.000
11/25/2014 3:51:23p 128 0 0 23 12 80.6 74.3 30.31 1.81 0.0 79 0.00 0.00 0.00 0.000
11/25/2014 3:52:23p 123 1 1 22 13 80.6 74.2 30.31 1.81 0.0 74 0.00 0.00 0.00 0.000
11/25/2014 3:53:23p 123 0 1 22 12 80.6 74.2 30.31 1.81 0.0 62 0.00 0.00 0.00 0.000
11/25/2014 3:54:23p 128 1 3 22 12 80.6 74.2 30.31 1.81 0.0 37 0.00 0.00 0.00 0.000
11/25/2014 3:55:23p 128 1 3 22 13 80.6 74.2 30.31 1.81 0.0 32 0.00 0.00 0.00 0.000

© All rights reserved. Unauthorized duplication or distribution is prohibited

Never base important decisions on this or any weather information obtained from the Internet

California State University, San Bernardino
5500 University Parkway, San Bernardino, CA. 92407
Phone: (909) 537-7558, Email: Weather Master
Last Updated: